ECMWFFLT2_prec_cthk_000.txt.gz
RH
17 17 17 17 17 17 16 17 17 16 16 15 15 15 15 14 14 14 14 13 13 13 13 13 12 12 12 12 12 12 13 13 13 14 15 15 16 17 17 17 16 16 15 15 14 14 14 13 12 12 11 11
19 19 19 18 18 18 18 18 18 17 17 16 16 15 15 15 15 15 14 14 13 13 13 12 11 11 11 11 11 11 11 11 12 12 13 14 15 15 16 16 16 16 16 15 15 14 14 13 12 11 11 11
20 20 20 20 19 19 19 18 18 18 17 16 16 16 15 15 16 15 15 15 14 13 13 12 11 11 10 10 10 10 11 11 11 12 12 13 14 15 15 16 16 16 15 15 14 14 13 13 12 11 11 11
21 21 21 21 21 20 19 19 18 18 17 16 16 16 16 16 16 16 16 15 15 14 14 13 11 10 10 10 10 10 10 10 11 12 13 14 15 15 16 16 16 15 14 14 14 13 13 13 12 12 12 12
22 23 23 22 22 21 20 19 18 18 17 16 16 17 17 17 17 17 16 15 15 14 15 14 11 10 10 10 10 10 10 11 12 13 14 15 15 16 17 16 15 15 14 14 13 13 13 13 13 12 12 12
23 24 23 23 22 21 20 20 19 18 18 17 17 17 18 18 18 18 17 16 16 15 16 14 11 11 10 10 10 10 11 12 13 14 15 15 16 17 17 16 15 15 14 14 13 13 13 13 13 12 12 12
24 25 24 23 22 22 21 20 19 19 19 19 19 19 19 19 19 19 18 17 16 15 16 14 12 11 10 11 11 12 12 13 14 15 16 16 17 17 17 16 15 15 14 14 14 13 13 13 12 12 12 12
25 26 25 23 23 23 22 21 20 20 20 20 20 20 19 20 20 20 19 18 17 16 16 15 13 12 11 11 13 14 14 14 16 16 17 17 17 17 17 17 16 16 15 14 14 14 13 13 12 12 12 12
26 26 25 24 24 24 23 23 22 22 21 22 21 21 21 21 21 21 21 20 19 18 18 16 15 13 13 13 14 15 16 16 17 17 17 17 17 17 17 18 18 17 16 15 15 14 14 13 13 12 12 12
26 26 25 25 25 25 24 24 24 23 23 23 23 22 22 22 22 22 22 21 21 20 19 18 17 15 15 15 16 16 18 18 18 18 18 18 18 18 18 19 19 18 17 17 16 15 14 14 14 13 13 13
26 26 26 26 26 25 25 25 25 24 25 24 24 23 23 23 23 23 23 23 22 22 21 20 18 17 17 16 17 18 19 19 19 19 18 18 18 18 19 20 20 19 18 18 17 16 16 15 15 14 14 14
27 26 27 27 26 26 27 27 26 25 25 25 25 24 24 23 23 23 23 23 23 22 21 21 20 18 18 17 18 18 19 20 21 21 20 19 19 19 20 21 21 20 19 19 18 17 17 16 16 15 15 15
28 28 28 27 27 28 28 27 26 26 26 26 26 25 24 23 23 23 23 23 23 22 22 22 20 19 19 18 18 19 20 21 21 22 22 22 21 20 20 21 21 21 21 20 20 19 18 17 16 16 16 15
29 29 29 29 29 30 29 28 27 26 26 26 26 26 25 24 24 24 24 25 24 23 23 23 22 22 21 20 20 20 20 20 21 22 23 24 24 23 22 22 22 22 22 22 21 20 19 18 18 17 17 17
31 31 30 30 31 32 31 29 27 26 26 26 26 26 26 26 26 26 26 26 27 25 25 25 25 25 24 23 22 21 21 20 20 21 22 24 25 25 25 24 24 24 23 23 23 22 21 20 19 19 18 18
32 32 32 33 32 32 32 30 27 26 26 26 26 26 26 26 27 27 28 28 28 27 26 26 26 26 25 26 24 22 21 21 21 21 22 23 24 26 27 26 26 25 25 25 25 24 22 21 20 20 19 19
34 35 35 34 32 32 33 31 28 27 28 28 28 27 27 29 29 30 30 31 30 29 28 28 27 27 27 28 25 23 22 23 23 24 24 24 24 25 27 28 28 28 27 26 26 26 25 23 22 21 21 20
37 37 38 36 34 34 34 32 30 29 30 31 30 31 31 32 33 34 34 35 34 34 33 32 31 30 30 30 27 24 24 25 26 27 28 27 25 26 28 29 29 29 29 29 27 26 26 25 24 23 22 22
39 41 42 40 38 37 35 34 33 32 34 35 34 35 35 36 36 37 38 38 38 38 37 37 36 35 35 34 31 28 27 28 30 31 32 30 29 27 29 31 31 31 31 30 29 28 27 25 24 24 24 25
42 44 44 41 39 37 37 36 36 37 39 39 38 38 38 38 39 40 41 42 43 43 42 41 40 40 40 38 35 32 31 31 32 35 37 36 34 32 31 32 33 33 33 31 30 29 29 28 26 25 26 27
45 45 45 43 40 39 39 38 39 40 41 40 39 40 40 41 42 44 45 46 47 46 45 45 44 44 43 41 38 36 34 34 36 38 40 41 41 38 36 37 38 38 37 34 31 30 30 30 30 29 28 29
44 45 46 45 42 40 39 38 38 38 38 37 37 39 41 43 45 46 48 48 49 49 48 47 46 46 46 44 41 38 36 37 39 41 43 44 44 43 40 41 43 44 43 40 36 33 32 32 33 33 31 31
47 48 48 45 42 39 36 35 34 34 33 33 34 36 38 41 43 46 49 50 51 51 50 49 48 48 48 47 45 42 39 39 41 44 45 45 46 47 46 44 46 48 49 46 42 38 35 34 34 34 33 32
59 54 48 43 38 35 33 32 31 30 31 31 31 32 35 36 38 41 44 46 49 49 49 49 48 47 47 48 46 44 42 44 47 48 48 47 47 50 51 47 47 49 50 49 47 42 38 37 36 36 35 33
54 49 44 38 33 31 30 31 30 30 30 29 29 29 31 33 34 38 41 44 46 48 49 48 47 47 47 47 46 45 44 45 50 53 55 53 51 53 55 53 50 50 50 50 49 44 41 39 38 38 36 34
41 41 41 38 34 32 32 32 31 30 30 29 28 28 29 31 33 36 39 42 45 48 50 49 48 48 48 48 46 45 43 42 46 52 57 59 57 58 59 59 55 52 50 50 50 48 43 41 40 39 37 35
39 39 37 36 35 34 34 34 33 32 31 30 31 30 31 33 34 36 37 39 42 45 47 47 46 47 49 48 45 43 42 39 41 47 54 59 61 62 62 62 62 59 54 52 54 52 47 43 42 40 37 35
38 36 35 34 34 34 34 33 33 32 31 33 34 32 32 33 34 36 36 37 39 40 43 43 43 45 47 47 45 42 40 40 40 46 53 57 61 64 65 65 66 66 63 59 59 57 53 49 46 43 40 38
35 34 34 34 33 33 32 31 31 30 31 32 34 33 32 32 33 35 36 37 38 38 41 43 44 46 46 47 45 40 38 40 43 48 54 58 62 67 70 69 68 70 71 70 67 65 61 56 52 50 48 46
36 35 34 34 33 33 32 32 32 32 32 32 32 33 33 34 34 34 35 36 36 37 39 42 44 45 45 46 45 42 40 41 45 51 55 59 62 67 73 74 71 72 75 75 74 71 67 61 55 53 53 52
43 41 40 39 37 36 36 35 36 37 37 36 36 35 35 37 37 35 35 35 36 37 39 41 43 44 45 46 47 48 46 44 48 54 57 60 62 65 72 75 74 75 78 77 75 74 70 64 58 55 55 55

ECMWFFLT2_prec_cthk_006.txt.gz
RH
17 17 17 16 16 15 15 15 15 15 21 30 32 33 33 32 30 24 22 15 13 27 31 21 10 15 30 32 31 31 31 31 30 30 30 31 30 30 29 29 33 32 30 27 20 14 15 15 15 15 14 14
18 18 19 18 17 16 16 17 17 17 19 24 29 31 30 28 27 19 16 14 12 22 32 29 15 12 25 32 31 31 30 31 31 31 31 31 30 30 29 30 33 31 29 27 17 12 14 14 14 15 14 15
19 19 21 20 19 19 19 19 19 20 20 21 24 26 27 25 22 18 16 15 14 18 24 28 21 13 22 31 32 32 32 31 32 32 31 31 30 29 30 32 32 28 25 21 13 11 13 13 14 14 14 14
19 20 22 22 22 22 21 22 21 21 22 22 22 22 23 22 20 17 17 17 15 15 17 20 20 15 20 29 33 32 33 33 32 32 31 30 30 31 32 33 31 25 22 17 11 12 12 12 13 13 14 14
20 21 23 24 23 24 23 24 24 23 23 23 23 22 21 20 19 18 17 18 17 16 16 16 17 15 15 22 31 33 33 33 33 33 31 30 31 32 33 32 28 21 17 14 11 12 12 12 13 13 13 13
21 23 24 25 25 25 25 25 25 24 24 24 25 23 21 20 19 19 18 19 18 18 18 17 18 16 12 15 25 32 34 34 33 34 33 31 31 33 33 28 23 17 13 12 12 12 12 13 13 13 13 13
23 24 25 26 26 26 27 27 26 26 26 25 26 25 23 22 21 20 20 20 20 19 19 19 19 17 14 14 16 23 30 34 34 34 34 33 33 34 29 21 16 14 12 12 13 13 14 14 14 14 14 13
25 26 27 28 28 28 28 28 28 28 27 26 26 27 25 24 23 23 22 21 22 21 21 21 21 19 17 15 14 15 20 27 32 34 35 34 35 32 25 17 14 14 14 14 14 15 15 15 15 15 14 13
28 28 29 29 29 30 30 30 30 29 28 28 27 27 27 26 25 25 24 23 23 24 23 23 24 23 20 18 17 16 15 18 23 29 32 32 32 29 23 18 15 15 16 16 16 16 16 16 16 15 14 13
29 30 30 30 30 30 31 31 31 30 30 29 29 29 28 28 28 27 26 25 25 26 25 25 26 25 24 22 21 19 17 16 17 20 23 24 24 22 20 17 16 16 17 17 17 17 17 16 15 15 15 14
31 32 32 31 32 32 32 33 32 31 30 30 31 31 30 29 29 30 29 28 27 27 28 28 27 27 26 25 24 22 21 20 18 17 17 18 18 17 17 16 17 17 17 18 17 17 17 16 15 15 15 15
32 34 35 34 34 34 34 34 33 32 32 32 33 32 32 32 32 32 31 30 29 29 29 30 29 28 27 26 25 24 24 23 21 19 17 16 16 15 15 16 17 17 18 18 18 18 17 17 16 15 15 15
32 34 35 36 36 37 36 35 35 35 35 35 35 34 34 33 33 34 33 33 32 31 32 31 30 28 27 27 26 25 24 24 23 21 19 17 16 15 14 15 15 16 17 17 18 19 19 18 18 16 16 15
31 33 34 35 37 38 38 38 38 39 39 38 38 37 36 35 35 35 35 35 35 34 34 32 31 29 28 27 26 26 25 25 24 22 21 18 17 16 15 14 14 14 14 15 16 16 17 18 18 18 18 17
32 33 33 34 37 38 39 40 41 41 41 41 41 40 39 38 37 37 36 37 37 37 37 35 33 30 29 28 27 27 26 25 24 24 22 21 19 17 16 15 14 14 14 14 15 15 15 15 16 17 17 18
35 35 35 35 35 37 38 40 42 42 42 42 43 42 42 41 41 39 39 39 39 39 40 38 36 33 32 31 31 30 29 27 26 25 24 22 21 19 18 17 16 17 16 16 16 16 16 15 16 15 16 17
41 40 39 38 37 37 38 39 41 42 43 44 44 43 43 44 43 42 41 41 41 42 42 41 39 37 36 37 36 36 33 31 29 27 25 25 24 22 21 20 20 20 19 18 18 18 18 17 17 16 17 17
45 46 45 44 42 41 40 40 40 40 42 43 44 45 45 45 44 43 42 42 42 43 43 43 43 42 42 42 42 41 38 36 34 31 29 28 27 26 25 24 24 24 23 22 21 21 21 20 20 19 19 18
48 49 49 49 48 47 45 44 43 42 42 43 44 46 46 46 46 46 45 44 43 44 44 44 45 46 46 47 47 46 43 40 37 35 33 31 30 29 29 28 27 27 27 25 25 24 23 23 23 22 22 21
50 51 52 52 53 52 51 50 48 46 46 45 46 47 46 47 48 48 48 47 47 46 46 46 47 48 49 49 50 49 47 45 41 39 38 37 35 33 32 31 30 30 30 29 28 28 26 25 25 25 25 24
52 52 52 53 54 55 55 54 53 51 50 49 48 48 48 48 49 50 50 49 50 50 49 48 48 48 49 50 51 50 49 47 45 43 43 41 39 37 36 35 33 32 32 32 32 31 30 29 27 27 26 26
52 53 53 53 53 55 57 57 57 55 54 52 51 51 50 50 51 51 50 51 51 52 51 50 49 49 49 51 52 50 49 47 45 43 42 41 41 40 37 36 36 35 34 34 33 33 32 32 31 30 29 27
50 52 53 53 53 54 56 57 58 58 57 56 55 54 53 53 54 53 53 54 55 54 53 52 50 51 51 52 53 51 48 45 42 39 39 39 39 39 37 36 36 36 34 34 33 32 31 32 33 33 32 30
50 52 53 56 57 57 56 56 56 57 57 58 57 57 57 57 57 57 59 61 62 59 57 54 51 51 52 53 53 51 48 43 39 37 38 39 39 39 37 34 33 33 33 32 31 30 29 30 31 33 32 31
50 54 57 61 64 65 63 60 58 58 59 60 60 60 60 60 59 61 63 67 67 65 62 57 52 51 52 52 51 50 47 44 41 39 39 40 39 39 37 34 32 32 32 31 30 30 30 29 29 31 31 31
50 52 55 58 62 66 69 68 66 66 66 66 67 66 66 64 63 64 66 70 70 69 66 59 53 51 52 52 51 51 49 47 44 41 40 39 38 38 37 35 33 32 32 30 28 29 30 31 29 30 31 31
56 55 54 56 59 62 67 70 72 72 71 72 72 73 74 73 73 73 73 73 72 70 66 61 56 54 55 57 55 52 50 47 45 44 42 40 39 39 38 36 33 32 33 31 29 29 29 30 30 29 29 28
59 58 58 60 61 61 63 67 71 72 74 77 79 79 79 80 81 81 80 79 79 76 74 70 64 58 57 60 58 52 48 45 43 42 41 41 41 40 38 35 32 34 36 34 31 30 30 30 30 28 27 28
64 63 64 65 66 66 68 70 71 70 69 73 77 79 82 84 84 83 83 82 83 83 82 78 72 65 59 60 58 51 46 43 40 38 38 41 43 42 39 37 34 35 37 35 32 32 33 32 30 28 28 29
71 72 73 73 73 74 76 78 78 76 72 70 71 73 77 81 83 84 84 83 83 85 86 82 78 71 62 59 57 50 46 43 39 37 37 41 44 43 43 42 37 35 36 35 33 33 32 31 31 31 31 31
73 74 75 77 77 78 80 81 83 82 80 77 74 71 71 74 76 77 77 76 76 78 81 80 76 73 65 60 54 49 47 44 40 40 41 44 47 47 47 46 41 37 37 36 33 33 33 31 32 33 32 32

ECMWFFLT2_prec_cthk_012.txt.gz
RH
32 33 33 28 23 25 28 30 30 25 30 36 34 34 34 33 32 32 32 31 32 32 31 31 31 30 29 30 30 29 31 33 34 35 36 34 31 31 31 30 31 32 32 30 25 15 9 9 8 8 8 8
29 31 30 28 24 25 28 29 28 24 29 36 36 35 35 35 34 33 33 33 32 32 31 32 31 31 30 30 30 28 29 31 32 33 34 34 34 34 32 31 32 34 32 29 27 20 14 10 9 10 9 9
29 28 27 25 24 24 25 26 27 30 33 37 37 36 36 36 35 34 34 33 34 33 33 34 33 33 32 30 29 28 28 29 29 31 32 31 33 33 32 32 33 35 33 30 28 23 18 13 11 12 11 11
32 30 28 26 25 24 24 23 25 30 34 38 39 38 38 38 37 36 35 35 35 35 35 35 35 34 33 32 30 29 29 28 29 29 30 29 30 31 30 31 32 33 33 31 29 25 20 15 13 13 12 13
37 35 33 33 31 28 26 23 24 28 32 36 40 41 40 39 38 37 36 36 36 36 37 36 36 35 33 34 33 31 31 29 29 28 28 28 28 29 29 29 30 31 32 32 30 24 18 14 13 13 13 12
39 40 39 40 40 38 33 28 25 27 31 33 37 41 41 41 41 40 39 38 37 37 39 38 36 36 31 32 34 33 32 30 29 28 28 28 27 28 28 28 29 30 31 32 30 21 13 12 12 12 12 11
36 39 41 42 43 42 40 35 29 28 30 30 33 37 41 43 43 42 42 41 40 39 40 39 38 38 32 30 35 34 33 31 30 30 29 29 29 29 28 27 28 29 30 30 29 21 11 11 11 10 11 10
32 36 39 41 43 43 43 41 36 33 32 31 31 34 38 42 44 44 44 43 43 42 42 42 40 41 37 31 34 34 33 33 32 32 31 31 31 31 29 28 28 29 29 30 30 22 11 10 10 10 10 10
31 32 36 39 43 44 44 45 44 40 38 35 32 33 36 41 44 44 45 44 44 44 44 45 43 44 42 35 34 35 34 34 34 34 34 33 32 32 31 30 29 29 28 29 27 19 11 10 10 10 10 10
31 31 32 36 41 43 45 48 50 47 45 43 37 35 37 42 45 45 46 45 44 44 46 46 46 46 45 39 35 36 37 35 34 35 35 34 34 33 33 31 29 27 27 24 19 13 10 10 10 10 10 10
32 33 34 35 38 42 44 48 52 52 50 49 46 42 41 44 47 47 46 46 45 45 46 47 47 47 47 42 36 38 39 36 34 34 35 35 35 34 33 33 30 26 23 18 14 11 10 10 10 10 10 10
34 35 36 37 38 41 44 47 51 55 55 55 54 52 48 47 48 50 48 47 47 46 47 47 48 49 50 46 39 38 38 36 34 33 32 33 35 34 33 33 30 27 22 18 16 13 11 10 11 10 10 10
33 35 37 39 40 42 44 47 49 53 55 58 60 59 57 54 51 50 50 50 48 48 48 48 49 50 50 50 44 39 37 36 35 33 31 31 33 33 33 32 31 28 25 21 19 17 14 12 11 11 11 11
28 32 36 39 41 43 45 47 50 52 53 56 60 62 63 62 59 55 55 56 53 52 51 50 51 50 50 52 48 43 38 37 37 36 33 31 31 32 32 31 30 29 27 24 22 19 16 14 13 13 13 13
26 29 33 35 39 42 46 48 50 53 55 56 58 60 64 65 66 63 61 63 62 58 58 57 54 52 51 52 50 46 41 39 39 39 37 35 32 31 31 30 30 29 27 25 23 20 18 16 14 14 14 14
25 30 32 34 37 39 42 46 48 52 56 59 60 60 61 64 66 67 64 65 67 63 61 61 58 54 53 53 51 47 44 42 41 42 42 40 38 35 33 32 31 30 28 26 24 22 19 17 15 15 14 14
23 29 32 34 37 40 41 43 45 49 53 58 61 63 62 62 64 66 66 66 68 67 64 64 62 57 55 55 53 49 46 45 44 44 44 43 43 41 38 35 32 31 30 28 26 24 22 19 17 16 16 15
19 23 28 32 35 39 43 44 46 46 48 53 59 63 65 65 65 65 66 67 68 69 67 67 66 64 59 57 57 52 48 47 47 46 45 45 45 44 41 38 34 32 31 30 29 28 25 23 20 18 18 17
19 20 22 26 31 35 39 44 49 51 50 50 54 60 64 67 68 67 67 68 69 70 70 69 69 68 65 61 59 56 52 50 49 48 47 46 44 43 42 41 38 34 33 32 31 30 29 27 24 21 20 20
23 22 21 22 26 30 35 38 45 53 55 54 54 56 61 66 69 70 71 70 70 71 72 71 71 70 69 65 61 60 57 54 52 50 49 47 44 43 41 42 40 36 34 33 32 32 31 29 27 25 23 23
25 25 24 23 24 27 31 35 39 46 53 56 56 56 58 62 67 71 73 73 72 72 72 72 73 72 71 69 64 62 61 58 56 54 51 49 46 43 42 42 41 38 35 34 34 33 32 31 29 28 27 26
27 27 26 26 26 27 29 32 36 39 45 50 55 58 59 60 63 67 72 75 74 74 73 73 75 76 74 72 68 65 63 61 59 58 55 53 49 46 44 43 43 41 38 37 38 36 35 34 33 31 30 28
31 30 29 28 29 30 30 31 35 39 41 42 47 56 61 61 60 63 67 72 76 76 75 75 76 76 77 76 73 69 66 64 62 60 59 57 53 50 47 46 46 46 43 42 41 39 37 37 37 35 32 31
33 32 32 33 32 32 32 33 35 40 43 42 43 49 57 62 63 64 65 67 71 75 77 77 77 77 78 77 76 73 69 67 64 63 61 60 57 54 52 49 49 49 47 46 46 44 41 39 38 36 35 34
32 33 33 33 33 34 35 35 36 39 43 46 46 47 49 54 61 66 69 71 70 72 75 77 77 78 80 80 80 79 75 71 68 66 64 63 61 58 55 52 51 50 50 50 48 43 40 39 38 37 38 37
30 31 30 30 30 31 33 34 35 37 39 43 45 46 45 46 52 58 65 72 75 76 77 78 79 79 81 82 83 84 82 77 74 71 68 66 64 60 58 56 54 54 52 49 44 42 45 45 41 39 40 39
29 29 28 27 27 26 28 29 31 33 34 35 36 40 43 43 46 50 56 63 72 78 81 82 82 83 84 85 85 87 87 85 82 78 74 70 66 63 61 59 58 57 54 51 49 49 50 47 44 43 42 40
35 36 33 29 28 27 27 26 27 28 30 32 31 33 39 43 44 46 49 54 60 69 78 83 84 85 87 89 89 90 90 91 90 86 82 76 71 67 64 62 60 59 58 58 56 52 49 49 50 46 39 39
46 46 42 37 34 33 31 31 29 29 31 33 34 34 37 42 43 43 44 48 53 58 67 77 84 85 85 87 91 93 93 93 93 92 89 84 79 74 69 65 64 63 63 62 60 57 55 54 49 42 39 44
51 51 48 44 42 40 38 37 34 33 34 35 38 38 39 40 42 43 43 45 48 52 57 65 77 85 85 83 86 93 94 93 95 95 94 91 86 82 78 73 71 67 64 63 64 62 59 56 52 48 49 52
52 52 51 49 49 47 44 42 40 38 38 37 38 40 43 43 43 44 45 45 45 49 54 57 65 78 87 85 82 86 92 93 94 95 95 93 90 89 85 82 79 72 66 64 64 62 60 60 60 56 54 52

ECMWFFLT2_prec_cthk_015.txt.gz
RH
34 35 33 34 35 36 37 38 39 40 39 36 35 34 33 34 36 35 33 33 34 34 34 33 32 33 33 34 34 31 31 33 34 34 34 34 33 32 32 33 33 32 32 30 24 16 10 8 8 7 7 7
34 34 34 34 35 36 37 39 40 40 39 38 37 36 34 35 37 36 35 34 34 34 34 34 33 33 33 32 34 33 31 32 33 34 35 35 35 32 32 33 32 33 35 31 26 22 18 12 9 8 8 8
35 35 34 34 33 34 35 36 39 40 40 38 36 36 37 37 37 37 37 36 35 34 35 34 33 33 32 32 33 33 32 32 32 33 34 34 35 33 33 33 32 34 36 33 28 25 24 20 15 10 8 8
37 38 36 36 34 33 34 34 36 38 39 38 35 37 40 40 39 39 37 37 37 35 35 35 34 33 33 32 32 33 33 32 33 33 33 33 33 33 33 34 34 35 35 34 30 26 26 25 20 15 10 9
38 39 38 40 40 39 39 37 36 36 36 37 37 38 41 42 41 40 39 38 39 38 37 36 36 35 34 34 31 33 34 33 34 34 35 33 32 33 32 33 33 34 34 35 33 31 29 28 25 21 16 11
33 35 36 38 42 46 47 44 41 38 36 35 37 38 41 43 42 42 41 41 41 41 40 38 38 37 36 36 33 33 34 33 34 35 35 34 34 33 32 32 32 33 33 34 35 35 32 31 28 28 24 15
32 33 34 34 37 43 48 49 48 46 42 38 36 37 40 43 43 43 43 43 43 42 43 41 40 39 38 38 36 35 34 34 34 34 34 34 34 32 30 31 32 32 32 33 34 34 33 31 31 30 26 18
33 34 35 36 35 37 41 46 50 51 49 43 39 36 38 41 43 44 44 44 45 44 44 44 43 41 40 39 38 37 37 37 36 36 35 34 33 31 29 30 31 31 31 30 30 30 29 29 30 26 18 14
32 34 35 37 38 38 38 40 44 48 50 49 45 40 37 39 41 44 45 44 45 45 45 45 45 44 43 41 40 39 38 39 38 37 37 36 33 31 30 30 30 29 29 28 26 26 25 26 27 20 13 12
32 34 35 37 39 41 41 41 41 44 47 50 51 50 47 42 40 42 45 46 44 46 47 46 46 46 47 45 43 40 40 41 40 39 38 38 35 32 31 30 29 28 27 26 24 24 24 23 23 16 11 12
26 30 34 37 39 41 43 45 45 45 46 49 52 55 58 57 51 45 43 45 45 46 48 49 48 47 48 47 46 43 42 43 43 41 40 39 37 35 33 31 29 27 26 25 24 24 23 22 21 15 11 11
21 23 27 30 34 39 43 47 49 49 49 49 51 54 58 62 64 58 49 47 46 47 49 49 49 49 49 48 48 46 44 46 46 44 43 41 39 36 35 33 30 28 26 25 24 23 21 19 17 13 11 11
21 22 23 24 27 31 36 43 48 51 52 52 53 54 56 61 66 65 60 56 54 54 54 53 51 49 50 50 50 49 46 48 50 48 46 43 41 39 37 34 32 30 28 27 25 23 19 16 14 12 12 12
21 22 23 24 25 27 29 34 40 46 52 55 56 56 58 60 64 66 65 64 68 70 67 63 60 54 52 52 52 52 51 49 51 52 50 47 44 43 40 37 34 32 31 29 27 24 20 17 16 14 13 13
22 23 23 24 24 26 28 30 33 37 43 50 56 59 60 60 61 65 67 68 71 75 76 74 71 65 60 56 53 54 55 53 51 51 52 52 49 47 44 40 38 35 34 32 30 28 25 22 21 18 16 16
23 24 25 24 24 24 24 27 30 33 37 41 48 55 60 63 62 62 64 67 70 71 75 79 78 75 69 64 61 58 58 58 54 50 53 56 54 51 48 44 42 40 37 34 32 30 29 27 24 22 21 19
26 26 27 27 26 24 23 23 24 27 31 35 39 46 52 60 64 65 62 63 67 69 72 76 78 78 75 73 71 67 65 65 61 54 53 58 58 55 53 50 45 43 41 38 35 33 32 31 28 26 24 22
26 28 28 28 28 27 25 24 23 24 25 28 32 37 43 50 58 64 66 65 64 67 70 73 74 75 76 77 76 73 71 70 69 62 56 57 59 59 57 55 51 48 44 41 39 37 34 33 31 29 26 25
26 28 28 29 29 28 26 25 24 24 24 25 26 30 34 41 48 56 63 67 67 66 66 68 71 73 76 81 80 78 75 72 73 71 65 60 59 61 60 58 56 52 49 46 43 39 37 34 33 32 29 27
27 29 30 31 31 31 30 28 26 26 25 25 26 28 30 32 38 46 53 62 68 69 68 66 67 69 75 81 84 83 80 76 74 73 71 66 60 59 60 60 59 56 53 51 47 44 40 37 34 33 32 30
27 29 30 31 32 33 33 33 31 29 28 26 26 28 31 32 34 37 44 53 61 68 72 71 69 67 70 76 81 83 81 79 76 72 73 72 66 60 59 59 59 58 56 54 52 49 45 41 37 34 33 33
26 27 28 28 30 31 32 33 32 31 30 28 28 27 28 33 36 37 39 46 54 60 67 72 74 72 71 73 77 80 80 80 78 75 75 75 72 66 62 60 59 58 57 56 55 53 49 46 42 38 35 35
28 27 26 26 27 29 29 29 29 29 29 28 28 28 27 28 32 36 39 43 49 53 58 65 71 75 75 75 76 78 79 80 80 78 77 76 74 72 67 63 61 59 58 58 56 55 54 51 48 44 40 36
31 27 24 25 26 27 27 28 27 26 27 27 26 27 27 28 29 32 37 41 46 50 53 57 63 70 74 77 77 77 78 79 80 80 79 77 75 73 70 67 65 64 62 61 61 60 59 57 54 49 45 40
29 25 23 24 25 26 26 26 27 27 27 27 26 25 25 27 29 30 32 35 39 44 48 52 57 62 68 73 77 78 79 79 80 81 80 79 77 74 71 69 68 67 68 69 67 65 63 62 60 56 51 45
24 22 24 27 31 35 36 33 29 28 28 28 28 27 26 25 26 26 27 30 33 36 41 46 50 55 60 65 71 76 79 80 80 81 82 81 80 77 72 70 69 69 71 72 69 67 66 66 64 61 56 49
24 26 31 39 45 48 48 43 36 31 29 31 32 31 30 28 27 26 26 31 37 39 40 42 44 49 54 57 62 69 76 80 81 81 82 83 82 80 75 72 71 70 70 70 70 69 69 66 63 62 58 49
34 36 39 44 48 50 49 46 40 35 33 35 37 37 36 34 32 30 28 32 38 41 42 42 43 44 48 52 56 61 69 77 83 85 84 84 84 83 79 75 72 70 70 71 71 70 67 64 62 59 52 46
44 44 45 48 51 51 49 46 41 37 37 38 40 40 40 40 38 35 33 33 34 36 38 41 43 44 43 46 50 55 61 68 79 88 90 89 89 87 83 78 74 71 72 74 72 69 66 62 59 53 48 50
50 51 53 55 56 54 49 46 41 39 41 40 41 41 41 43 42 40 37 36 35 33 32 33 38 44 45 44 45 49 54 60 69 83 92 94 95 95 91 86 82 75 73 74 73 71 69 64 60 55 55 58
57 61 63 62 61 59 56 53 48 47 49 47 46 46 45 45 45 44 42 40 40 39 36 34 34 39 44 47 48 47 48 52 60 73 87 95 96 98 98 95 90 82 74 74 74 72 70 69 66 62 59 58

ECMWFFLT2_prec_cthk_018.txt.gz
RH
37 44 49 48 49 50 47 46 48 50 51 49 47 46 46 48 49 46 47 44 39 36 36 37 37 35 33 32 31 32 33 33 34 34 35 36 34 32 29 29 33 33 34 31 27 24 13 6 7 6 7 7
37 42 46 49 50 50 49 45 42 44 47 49 48 46 46 47 48 47 46 43 39 37 36 37 38 37 34 34 33 32 33 33 35 34 36 37 34 34 32 30 32 33 36 34 29 28 19 8 7 7 6 7
39 41 44 48 51 53 56 50 44 42 41 44 45 45 44 44 46 48 47 45 41 39 38 38 39 38 36 36 35 33 33 33 35 35 35 37 35 34 34 31 32 34 36 36 32 30 24 13 9 9 8 7
38 39 41 44 48 50 54 53 50 47 43 41 41 42 42 43 44 45 47 49 47 42 39 39 41 40 38 37 36 34 34 34 35 35 35 37 37 35 34 33 33 35 36 37 35 32 29 20 13 13 11 9
35 37 39 40 43 46 49 50 50 50 51 50 44 40 39 41 43 43 45 49 51 47 42 41 42 42 41 39 37 36 35 35 35 36 37 37 38 37 34 33 33 35 36 37 36 34 32 27 22 20 17 13
33 35 36 38 40 43 45 48 50 51 57 62 59 51 42 38 40 43 44 46 49 51 47 43 42 43 43 42 40 39 38 37 36 36 38 38 42 43 37 32 31 34 35 36 37 36 34 33 30 27 23 18
29 32 34 36 38 40 44 46 48 49 52 60 66 66 60 49 41 40 43 46 47 49 51 49 44 42 43 44 43 42 41 40 37 37 39 39 42 46 42 34 32 33 34 35 35 36 36 36 35 32 28 24
22 25 28 32 34 37 41 43 46 48 49 53 59 65 69 66 57 47 44 46 46 46 49 51 49 46 44 44 45 45 44 43 40 39 40 40 41 43 41 37 35 34 33 34 34 35 35 36 35 34 31 28
20 20 22 24 28 31 35 39 43 46 49 51 55 58 63 67 67 60 51 48 46 46 47 49 51 50 47 46 46 47 46 45 44 42 42 42 43 42 41 39 38 36 34 32 32 33 34 35 35 34 33 31
20 21 21 21 23 24 26 30 35 40 45 49 53 57 59 61 64 66 63 59 54 50 48 47 48 49 49 48 48 48 48 47 46 45 45 45 44 44 43 41 39 37 35 33 31 31 33 34 33 32 32 31
22 22 22 23 23 23 23 24 26 30 35 41 48 53 58 59 61 64 66 69 68 64 58 53 50 48 48 49 49 49 49 48 47 47 47 47 46 46 45 44 41 39 37 34 32 31 32 32 31 31 30 29
22 22 22 23 23 24 24 24 25 26 28 31 37 44 51 56 59 62 64 68 72 72 70 67 63 57 52 50 50 51 51 50 49 48 48 49 48 48 48 47 44 41 38 35 34 33 32 31 30 29 29 28
22 21 22 22 23 23 23 24 25 26 27 27 29 34 40 47 53 59 63 66 69 70 71 74 73 67 62 57 53 53 54 52 52 51 50 50 50 50 50 49 48 45 41 37 35 34 33 32 30 29 28 28
21 21 22 23 23 23 24 24 26 26 28 28 29 30 32 38 43 49 56 62 67 69 70 73 75 73 70 66 62 59 57 54 53 54 53 52 51 51 52 52 51 49 45 40 37 36 35 34 32 30 29 27
23 23 23 24 25 25 25 25 27 28 29 29 30 30 31 33 36 41 46 53 60 64 67 72 74 74 73 71 71 69 65 61 58 56 55 54 53 53 53 54 55 53 49 45 41 39 37 37 36 33 31 27
23 23 23 24 25 26 27 27 27 29 30 30 31 30 30 31 33 36 40 45 52 57 62 68 72 73 73 73 73 74 73 70 67 64 60 57 55 55 56 57 57 56 53 49 45 42 40 39 38 37 34 27
24 23 23 23 24 26 27 27 27 28 29 30 30 29 28 29 30 33 36 40 46 53 57 62 69 72 73 72 73 75 75 74 72 69 68 65 59 56 57 57 57 57 56 52 49 46 43 42 40 40 37 29
26 25 25 25 25 26 26 26 26 27 28 29 29 28 27 26 27 29 32 35 40 47 54 58 63 68 71 72 73 76 77 77 77 74 73 72 67 60 57 56 58 58 57 56 52 49 46 45 43 42 40 33
29 28 27 27 28 29 29 28 28 28 28 29 28 28 27 25 25 25 28 33 36 41 49 56 61 65 68 70 71 74 76 77 78 78 77 75 72 69 63 60 60 59 57 57 54 52 49 48 47 46 44 41
31 28 28 28 29 30 31 31 31 32 31 30 30 29 29 28 26 26 27 32 36 40 44 50 57 63 67 70 70 72 75 75 75 77 79 78 75 75 73 68 66 63 61 59 56 54 52 50 51 49 48 47
31 28 27 27 28 29 30 31 32 32 33 33 32 30 30 30 29 28 28 31 35 39 41 45 51 58 64 70 73 73 75 76 76 77 79 79 78 77 77 74 71 68 65 62 60 59 55 52 53 53 51 51
31 29 28 26 27 28 28 29 30 30 31 32 33 33 31 31 31 30 30 31 33 34 37 40 44 51 57 63 70 74 77 77 78 81 82 82 80 79 78 76 74 72 69 67 66 65 62 57 53 53 55 55
33 31 29 28 26 27 27 27 27 28 28 29 31 32 31 30 30 30 31 32 32 32 32 35 38 43 49 54 61 68 75 78 79 81 84 84 83 82 81 80 78 76 74 73 73 71 68 63 58 55 56 57
31 29 27 26 25 26 26 26 26 25 26 26 27 28 28 28 27 27 29 32 33 33 31 30 32 35 41 46 52 59 66 74 79 80 82 83 84 84 85 84 82 81 80 79 79 78 74 69 65 61 57 56
29 27 25 26 29 30 29 27 27 26 26 26 25 24 24 25 26 26 28 30 32 32 33 31 30 33 38 42 46 51 55 64 74 79 81 81 83 85 87 86 83 84 87 87 84 82 78 72 68 66 62 57
29 27 27 29 33 35 34 32 32 32 30 29 29 29 28 27 28 29 29 29 30 30 31 32 32 35 41 44 45 46 48 53 64 74 80 81 82 84 86 87 85 85 89 90 85 81 80 78 73 68 66 62
30 30 32 34 36 37 37 37 37 39 39 37 36 35 34 32 30 31 30 30 30 30 31 31 32 34 40 44 45 45 45 45 51 62 73 80 82 83 83 86 87 87 88 88 85 83 81 80 77 70 66 65
33 33 34 36 37 38 37 37 38 41 44 45 45 43 40 38 35 34 34 33 31 31 32 32 32 32 34 38 40 42 43 43 45 50 61 72 79 82 83 84 85 86 86 85 86 87 82 78 79 75 65 60
37 37 37 37 38 37 38 38 39 41 45 47 48 47 45 44 42 40 39 37 34 33 34 35 34 33 33 33 33 35 37 40 42 45 50 60 71 78 82 83 84 85 85 84 83 84 81 77 77 72 62 59
44 45 44 43 42 43 45 45 44 47 50 49 46 45 44 44 44 43 42 40 38 36 36 37 37 35 35 34 34 33 33 35 38 42 45 51 61 71 78 81 83 85 87 88 86 84 81 78 75 71 67 68
53 54 51 49 49 53 57 55 52 53 55 53 50 49 48 47 47 47 48 47 44 41 39 38 39 39 37 36 36 35 34 34 35 39 44 50 57 66 73 79 82 82 85 90 92 89 85 80 77 75 73 71

ECMWFFLT2_prec_cthk_021.txt.gz
RH
41 40 42 41 42 45 49 53 55 55 59 59 53 50 49 48 49 50 51 51 53 55 55 55 54 51 44 37 36 36 36 34 36 42 47 51 53 52 49 46 41 35 33 33 33 31 28 17 6 9 14 16
40 41 42 42 42 44 49 53 55 56 58 60 57 51 49 50 50 49 49 51 52 54 55 54 54 55 54 47 39 36 37 35 34 42 49 50 50 52 51 49 47 38 33 34 34 32 31 21 7 6 10 10
38 41 42 43 44 45 50 55 57 58 57 57 56 54 50 48 50 50 48 50 52 54 54 53 53 52 52 53 48 39 37 37 36 39 48 49 47 54 54 51 50 41 34 34 35 34 33 28 12 5 8 7
33 37 40 41 44 45 49 55 58 58 59 61 59 55 50 46 48 50 49 49 48 51 52 50 50 49 45 48 53 47 38 37 38 37 43 48 48 53 55 54 54 45 36 34 36 35 34 33 21 8 6 7
28 31 35 38 40 42 44 49 56 59 60 64 63 56 51 46 44 46 47 47 46 47 48 48 48 50 48 44 48 52 45 38 37 38 39 44 49 53 55 56 56 47 36 32 34 36 36 34 30 19 8 6
24 27 29 32 36 39 40 40 46 51 55 60 60 56 53 51 48 47 46 45 45 47 48 48 48 50 53 50 45 46 48 43 37 39 38 41 47 51 54 55 57 49 37 32 31 34 37 36 35 30 19 10
21 24 26 28 31 33 36 36 37 40 45 49 49 51 56 60 60 57 55 53 49 48 48 48 49 49 52 57 54 45 45 45 40 40 39 41 46 48 51 54 56 50 39 35 31 30 35 38 36 34 29 22
21 22 23 25 27 29 31 33 34 36 39 40 39 43 52 62 68 65 63 64 60 55 50 47 49 52 52 54 56 51 47 45 43 42 40 43 45 45 48 52 56 51 40 37 35 30 31 34 35 34 34 30
21 22 22 23 25 27 29 31 32 33 36 37 36 36 39 49 61 67 67 68 68 66 60 53 50 54 57 54 52 52 51 50 47 44 42 44 46 46 46 48 54 53 43 39 37 35 33 31 33 34 34 34
21 22 23 24 24 25 27 29 31 32 34 36 37 36 34 36 45 56 62 65 68 68 66 64 59 55 58 61 60 56 53 53 52 48 44 44 46 47 48 47 49 49 44 40 39 38 36 34 33 33 34 35
21 22 23 24 26 27 28 29 30 32 34 35 37 37 35 34 36 42 49 56 62 66 67 68 67 62 59 60 63 61 57 54 53 53 50 46 45 46 49 51 50 48 45 43 42 41 39 37 35 34 35 35
21 22 23 24 25 26 27 28 30 31 32 35 36 37 37 36 36 37 41 47 52 57 63 66 67 66 65 62 62 65 63 58 54 53 54 51 48 46 47 52 53 51 48 47 46 44 42 39 38 37 36 35
22 22 23 24 24 24 24 25 27 29 30 32 34 36 37 38 38 38 39 42 44 46 52 58 63 67 70 68 68 72 70 66 61 56 54 54 53 50 47 49 52 53 51 49 49 47 45 42 40 38 37 36
23 23 23 23 23 23 23 24 26 27 28 28 29 31 33 35 37 39 40 41 42 43 44 47 53 61 68 69 70 75 76 73 72 67 63 58 55 54 51 49 50 52 52 51 52 51 49 45 42 40 38 37
24 24 24 23 23 23 22 23 23 24 25 24 24 24 26 28 30 33 36 39 41 42 43 42 45 50 59 65 69 74 77 77 77 76 72 66 59 55 54 52 51 50 52 52 53 54 53 50 46 42 40 38
26 25 25 24 24 23 22 22 21 21 21 22 23 23 23 24 25 26 28 30 34 37 40 41 43 45 50 57 65 73 76 76 79 78 76 74 68 63 59 56 54 51 51 52 53 54 55 53 49 45 42 39
31 29 28 28 27 26 25 25 24 23 22 22 22 22 23 23 24 25 26 26 27 29 32 36 40 43 46 49 56 67 74 75 77 77 77 77 76 72 67 63 58 54 52 52 52 54 54 55 52 49 45 41
37 36 35 35 34 33 31 30 29 28 27 25 24 23 22 22 23 23 25 26 26 27 27 29 32 36 42 46 50 57 68 73 75 76 77 77 78 77 75 71 66 60 54 52 52 54 55 55 55 54 49 44
44 43 43 43 43 43 42 40 37 33 31 28 27 26 24 24 24 24 25 26 26 26 26 26 27 29 33 40 46 51 59 66 70 74 76 77 78 78 78 77 73 68 63 58 54 53 56 57 58 58 54 49
50 49 48 48 48 47 47 45 42 38 34 30 28 28 27 28 28 28 28 27 25 25 26 26 26 27 29 33 39 46 54 60 64 71 76 78 78 79 79 78 77 75 73 70 63 56 55 58 59 60 59 55
47 46 44 43 43 43 42 40 40 39 36 34 33 33 32 31 31 31 31 29 26 25 25 26 27 27 29 30 32 37 46 55 61 67 74 77 78 79 78 78 78 77 77 77 74 65 57 56 58 59 60 59
42 41 40 39 39 39 38 37 36 37 37 37 36 35 34 32 31 31 31 30 28 26 26 26 27 28 29 30 30 31 35 44 54 62 69 74 77 78 75 75 77 76 76 78 77 74 67 60 58 58 60 61
42 40 39 38 38 37 36 35 34 33 33 33 33 32 31 31 31 30 29 29 29 28 27 26 26 27 29 30 31 30 29 33 41 51 60 67 74 76 71 72 78 76 77 79 78 78 76 71 65 62 63 64
42 40 38 37 35 33 32 32 31 29 27 26 26 26 27 27 28 28 28 28 28 28 27 26 26 26 27 30 32 32 30 30 34 42 49 56 65 74 72 71 77 78 78 80 79 79 81 80 76 70 67 68
42 39 37 35 32 30 28 28 27 25 24 22 22 22 23 24 25 27 27 27 27 28 28 26 26 26 25 28 31 33 33 31 33 38 44 48 53 63 70 72 77 79 80 82 83 81 80 80 83 80 73 71
41 39 35 32 29 28 27 26 26 25 24 23 23 23 23 24 26 29 30 28 27 28 28 27 27 27 26 26 29 32 34 34 33 35 41 46 48 52 59 68 76 80 80 83 85 81 77 77 83 87 84 76
41 37 34 31 29 29 29 28 27 27 27 26 26 27 27 30 34 35 35 35 33 30 29 27 27 29 29 29 29 30 32 33 33 32 35 42 47 49 51 56 67 78 80 80 83 85 85 83 84 88 89 84
35 33 32 32 33 33 33 31 29 29 29 29 30 32 34 36 40 40 40 39 37 35 34 31 29 29 30 31 33 33 32 32 33 33 33 37 42 46 50 51 56 67 77 79 80 86 93 93 90 89 86 80
35 36 37 39 41 40 36 33 31 30 31 29 29 34 37 38 39 40 41 42 41 38 38 36 34 34 34 34 36 38 37 35 34 35 35 36 39 40 45 51 54 58 68 78 81 83 90 97 98 93 86 82
38 43 49 53 52 48 43 37 33 31 31 30 30 35 39 39 40 41 42 44 46 45 43 42 42 43 41 40 39 40 41 40 38 37 37 38 40 40 39 44 53 58 60 70 80 83 85 91 96 95 93 95
40 44 52 57 56 54 50 43 36 33 33 33 35 40 42 43 45 46 45 46 48 51 50 48 48 48 45 44 43 41 41 41 40 40 39 39 41 43 42 40 45 54 62 68 76 83 85 85 92 96 97 99

ECMWFFLT2_prec_cthk_024.txt.gz
RH
34 34 41 49 53 57 61 66 67 58 53 55 58 61 61 59 55 52 50 50 52 55 58 61 64 64 61 56 53 49 41 34 33 39 44 46 52 51 53 55 55 56 46 36 35 35 36 33 30 23 10 9
31 31 37 45 50 54 53 53 54 50 47 50 55 57 57 60 57 54 53 51 51 52 56 58 61 65 67 65 60 55 48 41 37 36 40 44 48 50 53 55 54 56 49 38 36 37 38 36 32 25 12 7
28 29 32 38 44 45 43 44 46 46 48 49 52 54 56 59 57 55 57 55 53 52 54 56 60 65 68 70 67 63 57 49 44 39 38 41 46 49 51 55 57 59 53 43 38 37 39 38 33 29 17 8
25 27 28 31 36 37 37 39 39 41 49 53 53 55 58 61 61 59 58 56 56 54 53 54 57 63 66 67 70 71 64 55 50 45 40 40 44 48 51 55 59 60 57 49 42 39 39 39 34 33 24 9
22 24 24 26 29 32 34 35 34 34 43 53 57 60 60 62 63 62 58 54 55 56 55 55 53 58 61 61 66 70 67 60 54 50 45 41 42 46 49 53 55 58 61 55 46 43 41 40 37 34 29 15
20 21 22 23 24 27 30 32 33 31 34 44 51 55 58 61 61 61 59 55 54 53 53 55 53 53 54 55 60 65 67 66 62 55 49 44 42 43 46 48 50 57 63 58 49 46 42 42 40 35 33 26
21 22 23 24 25 26 27 29 32 33 34 39 42 45 48 54 59 60 60 59 55 52 50 50 51 50 50 51 53 56 62 69 69 63 55 48 43 41 43 45 48 53 61 60 50 46 44 43 44 38 34 32
22 23 23 24 25 27 28 29 31 34 36 37 38 41 43 46 52 54 54 56 54 51 51 49 49 49 48 49 50 51 56 67 71 69 66 55 46 42 41 44 48 50 56 58 50 46 46 44 44 41 36 33
22 22 22 23 24 25 27 29 31 34 36 37 37 39 41 42 46 48 47 48 48 50 54 54 53 51 49 49 52 52 53 61 67 71 74 66 54 47 41 42 47 49 52 52 47 46 48 47 45 42 38 35
22 22 22 22 22 24 25 27 30 32 34 36 37 38 40 40 42 44 44 44 42 48 54 55 55 55 55 54 54 54 52 55 61 67 74 72 63 56 48 43 43 47 50 48 45 44 45 47 47 43 39 35
22 23 23 23 23 24 25 26 29 31 32 34 36 38 40 39 40 42 43 43 42 46 54 56 55 54 56 56 55 54 53 53 58 64 71 72 67 60 55 50 45 44 47 47 45 44 45 46 46 43 40 36
23 23 23 24 24 25 25 27 28 30 32 33 34 36 38 39 40 41 42 43 43 44 50 55 57 56 55 55 54 53 52 54 56 63 71 73 70 63 58 57 52 47 45 46 45 44 45 46 45 44 42 38
25 25 25 25 25 26 26 27 28 28 29 30 31 32 33 35 37 39 41 43 44 45 47 50 54 56 56 55 55 55 53 53 54 59 69 74 74 68 61 59 58 52 47 45 46 44 45 47 47 46 45 41
29 28 28 28 28 28 28 28 28 27 26 26 26 28 29 31 32 32 35 37 40 42 44 46 49 54 56 56 55 56 54 53 52 52 60 69 74 74 68 62 60 57 52 47 45 46 46 46 48 49 48 45
31 31 31 32 32 32 32 31 31 29 28 27 26 26 26 28 29 29 29 30 31 33 35 37 40 46 51 55 55 56 55 54 53 51 53 61 68 73 72 67 63 60 57 52 48 46 46 48 49 50 51 50
32 33 33 34 35 35 35 35 35 34 33 31 30 28 26 25 26 27 27 27 27 26 28 29 31 34 38 45 51 55 56 55 55 52 51 57 64 70 73 72 69 64 60 56 53 49 47 48 50 51 53 54
38 37 37 38 38 38 39 38 38 38 37 36 34 33 31 28 26 26 26 26 27 26 26 26 27 28 29 32 38 45 51 54 55 55 53 55 64 70 73 75 75 72 66 59 56 54 51 48 49 52 54 55
48 47 47 48 48 47 45 44 42 41 40 39 38 38 37 35 33 30 29 29 29 29 29 29 27 27 27 27 28 32 39 46 51 55 55 55 61 68 71 75 78 78 75 70 63 58 55 52 50 51 53 55
53 53 54 56 57 56 54 50 47 44 42 40 38 38 38 39 40 38 35 33 32 32 33 34 32 29 28 27 26 27 30 35 42 49 54 54 57 62 67 70 75 78 79 78 74 66 61 58 55 53 53 55
55 55 57 60 60 59 58 55 52 50 47 44 41 39 38 38 40 41 40 38 37 36 36 36 35 33 31 29 27 26 26 28 33 39 47 53 56 59 64 67 71 75 77 78 79 76 70 65 62 59 56 55
57 55 57 59 60 58 57 56 54 52 50 48 47 44 42 41 40 41 41 40 39 38 38 37 35 34 33 32 30 28 26 26 28 31 37 45 54 59 62 66 72 74 75 77 78 79 78 73 69 67 62 58
56 53 53 55 56 56 55 55 54 52 51 49 48 47 46 44 41 39 40 40 39 37 37 35 34 33 32 31 30 29 27 25 26 28 30 35 43 54 58 61 69 75 76 78 78 78 80 78 74 71 69 66
56 54 53 54 56 57 56 54 54 52 50 48 47 46 45 43 40 36 34 34 35 34 34 34 33 32 31 30 29 29 27 26 25 25 28 30 33 42 51 56 64 71 74 77 79 77 77 79 78 75 74 73
55 54 52 52 54 57 57 55 53 50 48 45 43 41 39 38 35 32 29 28 29 30 31 32 33 32 31 30 29 29 28 26 25 24 24 28 30 33 40 49 58 67 71 72 77 79 78 78 79 79 76 75
50 51 50 49 52 55 57 56 54 50 45 42 39 37 35 34 32 30 28 27 27 27 27 29 32 33 32 31 30 29 27 27 27 26 25 25 28 29 32 39 48 60 66 66 69 75 79 79 78 79 78 76
44 45 45 45 46 48 49 49 48 47 43 39 36 34 33 32 31 29 28 28 29 29 28 29 30 31 32 32 31 29 28 29 27 27 28 27 28 29 30 33 38 48 57 61 64 68 75 80 80 80 78 78
39 38 37 36 36 37 38 39 40 42 42 40 36 34 32 30 28 27 26 27 30 32 33 33 32 32 32 32 32 31 30 30 29 28 29 30 30 31 31 31 33 39 47 53 59 63 69 74 79 81 78 78
35 33 31 31 31 31 32 32 34 38 39 38 36 34 32 31 29 27 27 29 31 33 34 34 34 35 36 36 35 33 31 30 29 29 31 31 31 32 32 32 32 35 40 45 50 57 63 68 76 82 76 73
29 28 29 29 28 27 28 29 30 34 36 37 38 38 35 34 32 30 33 37 37 36 35 35 36 38 39 40 40 37 33 31 30 29 31 32 32 32 32 33 32 33 36 39 43 49 57 64 73 80 76 72
22 23 24 24 23 24 24 25 27 30 34 36 38 38 35 33 33 36 40 43 42 41 41 40 40 41 42 43 44 42 37 34 32 32 32 32 34 34 33 33 33 32 32 35 38 41 50 59 66 74 79 78
18 19 20 19 21 24 24 24 26 29 33 35 35 34 33 33 35 39 44 45 44 44 44 43 41 42 44 45 45 45 44 40 38 38 38 36 36 36 35 35 35 33 32 33 35 37 42 52 60 66 77 80

ECMWFFLT2_prec_cthk_027.txt.gz
RH
31 33 34 36 39 40 40 49 57 61 67 73 73 75 79 80 78 74 70 63 59 60 61 61 60 60 63 62 60 59 57 52 50 51 50 48 48 50 53 54 57 59 58 52 48 48 45 42 38 34 29 18
26 26 27 28 30 33 34 42 54 61 68 73 75 77 78 79 78 75 72 65 58 59 62 62 62 65 67 68 70 66 62 60 55 52 49 47 46 47 51 53 56 58 56 53 49 49 46 44 41 37 32 20
23 22 23 24 26 28 28 36 47 53 62 68 73 77 76 75 75 73 71 65 60 58 58 60 64 67 67 69 72 70 66 65 62 58 53 49 47 45 50 53 56 58 57 54 50 50 48 46 44 40 36 26
21 20 20 21 23 24 24 34 44 45 52 60 67 72 72 72 70 68 66 63 63 62 59 59 61 64 66 68 69 69 70 70 68 64 58 54 51 47 48 52 55 58 59 56 52 50 50 48 45 42 38 33
20 20 19 19 20 22 22 30 41 42 44 50 58 62 59 60 62 58 56 59 62 64 65 62 60 61 64 67 67 70 72 72 72 71 67 61 56 50 47 50 54 57 59 58 57 54 52 50 47 43 40 38
21 20 20 20 20 21 22 26 36 40 41 43 48 51 46 44 49 48 46 52 56 58 61 60 57 58 61 63 64 69 72 74 76 77 73 69 63 56 52 51 51 54 58 59 59 58 55 51 48 46 43 40
23 23 22 22 22 23 23 25 30 36 40 40 41 43 40 37 40 42 41 46 48 47 50 54 56 56 59 60 59 62 67 71 75 77 75 72 68 63 56 54 52 51 55 59 60 59 56 52 49 48 47 43
24 24 24 24 24 25 26 26 27 31 36 39 40 41 40 38 39 42 43 46 47 45 45 48 53 56 58 58 55 54 57 62 67 72 74 73 71 68 60 57 58 52 51 56 60 59 55 56 55 51 50 48
26 25 26 26 25 26 27 28 28 30 32 35 38 41 42 41 41 43 45 50 52 49 46 46 49 52 54 55 53 51 50 52 56 62 68 71 72 73 69 62 61 56 50 50 55 57 54 57 61 56 54 53
27 27 27 27 27 27 27 28 28 29 31 32 35 39 42 42 43 44 45 50 54 54 52 49 48 49 50 50 49 49 46 44 46 50 55 62 68 74 76 72 67 61 54 49 49 51 52 54 59 59 57 55
29 29 29 29 29 28 28 28 28 28 29 30 33 35 39 41 42 45 45 47 51 56 58 55 53 51 50 47 46 46 43 40 40 41 44 49 59 68 74 76 74 69 61 54 48 46 47 49 54 58 57 54
31 31 31 31 31 30 30 29 29 29 28 28 30 32 35 37 40 43 45 46 47 51 56 57 56 54 51 49 46 45 44 43 40 38 39 41 48 58 67 74 77 76 69 63 56 49 46 45 48 52 54 53
32 32 31 32 31 32 31 31 31 30 30 30 30 31 33 35 37 39 41 44 45 47 50 51 52 53 52 50 48 46 46 49 48 42 40 41 43 47 55 64 71 76 76 72 66 57 50 48 46 46 49 51
35 34 33 32 32 32 32 32 32 32 32 32 31 31 32 33 34 36 38 39 41 43 46 48 48 50 51 51 48 46 47 50 52 49 45 45 45 43 44 50 58 66 72 76 74 65 56 53 50 47 47 48
38 37 35 34 34 33 34 34 34 34 33 33 33 32 32 32 32 32 33 34 36 38 40 43 45 47 48 50 48 46 49 52 52 51 51 50 48 44 42 43 49 53 59 69 75 72 62 57 55 52 49 48
44 43 40 39 37 36 36 35 35 35 34 34 34 34 33 32 31 30 29 29 29 30 32 35 37 40 43 45 46 45 48 53 55 53 54 54 51 47 45 44 47 48 49 55 66 72 70 62 58 56 53 51
49 49 47 46 45 44 42 40 39 39 38 37 36 36 35 34 34 32 31 29 27 27 28 29 31 33 34 37 40 42 43 46 50 51 52 52 52 51 50 49 50 49 47 48 55 64 70 69 62 60 57 53
53 52 52 52 52 52 49 46 44 43 42 41 41 40 39 38 37 35 34 32 30 28 27 27 29 31 32 32 32 35 37 38 41 45 47 46 46 47 49 51 53 54 51 48 49 53 62 69 68 65 61 56
57 56 55 55 55 54 53 50 48 48 46 45 45 43 42 42 41 39 38 35 33 31 30 29 29 30 32 33 32 32 33 34 36 39 42 42 41 40 41 44 49 54 55 53 50 51 56 63 69 69 65 61
63 60 57 56 55 53 52 51 52 55 54 51 49 46 45 44 43 42 41 38 36 34 33 32 32 33 32 33 34 33 34 34 35 36 38 40 40 39 38 38 41 46 52 56 56 58 56 56 63 68 68 66
66 63 59 56 55 54 53 52 53 56 58 56 53 51 50 49 47 46 44 41 38 36 35 35 36 37 37 36 35 34 35 35 36 37 38 38 39 39 39 38 38 38 43 50 57 63 62 57 59 63 65 67
63 61 59 57 56 55 55 56 57 57 57 57 56 55 53 53 52 51 48 44 41 38 37 37 36 37 39 39 38 37 36 35 36 37 38 39 38 39 39 39 38 38 38 42 51 61 66 67 66 63 65 68
61 59 57 56 55 54 54 56 58 59 60 60 59 57 55 53 52 51 50 48 45 43 40 38 36 36 36 37 38 38 37 36 35 35 36 38 38 38 38 38 38 39 38 39 43 53 62 70 72 69 68 71
64 60 57 55 53 52 51 51 53 55 58 59 59 59 58 56 54 51 49 48 47 45 44 42 39 38 38 37 37 37 37 37 35 34 34 34 35 35 35 35 36 37 38 38 39 44 53 62 69 72 72 72
63 58 55 53 50 50 50 49 49 50 51 54 55 56 57 58 57 54 52 49 47 45 44 43 41 41 43 43 41 39 38 37 36 34 33 32 32 32 32 32 32 32 34 35 36 39 45 52 59 67 72 71
55 53 52 49 46 45 46 46 46 46 46 47 48 49 51 53 55 55 54 51 48 46 44 42 41 41 45 47 46 44 42 40 38 36 35 33 31 30 30 30 30 31 31 30 31 34 40 46 49 56 67 69
50 50 50 47 43 42 42 41 40 40 41 41 41 42 43 47 52 54 52 50 47 46 43 42 43 44 44 45 46 46 45 44 42 40 38 37 34 32 30 29 29 29 30 29 28 30 36 41 44 49 57 64
48 49 49 46 44 43 42 39 36 35 35 35 36 36 36 39 45 49 49 47 45 44 41 40 44 47 46 44 44 44 44 44 43 42 40 38 36 34 32 30 29 28 29 29 28 28 31 38 43 45 48 54
49 48 47 46 45 44 43 40 35 33 31 31 32 34 34 34 35 37 41 42 41 41 39 37 40 46 47 45 44 44 44 43 42 40 40 38 37 35 33 32 32 31 30 30 29 28 29 34 40 42 44 47
49 47 45 44 44 42 41 39 36 33 32 32 31 30 29 29 30 30 31 33 35 37 37 36 39 43 45 46 45 45 46 46 44 42 40 39 38 37 36 35 35 34 33 32 31 29 28 30 34 38 40 44
46 44 41 41 40 38 36 35 33 32 32 32 32 28 22 19 23 27 28 27 28 31 33 36 39 42 45 47 48 47 46 47 48 46 43 42 41 40 40 40 39 37 35 35 34 32 30 28 30 32 35 40

ECMWFFLT2_prec_cthk_030.txt.gz
RH
37 37 39 40 41 42 44 46 47 50 55 61 66 69 72 75 79 81 82 82 79 74 70 69 70 72 73 74 73 68 65 63 60 56 53 55 56 55 55 55 54 55 57 55 49 50 55 53 48 42 36 31
29 29 30 30 32 34 37 40 42 44 48 53 57 62 67 71 75 75 76 79 78 77 73 70 69 72 73 74 73 70 70 67 63 61 59 57 56 55 54 54 53 53 53 52 52 54 55 55 53 47 41 34
23 23 22 22 23 26 30 34 37 38 40 43 46 51 59 65 70 73 76 78 78 79 77 75 72 71 73 73 72 72 73 72 68 66 65 62 59 55 54 53 54 52 49 51 55 56 55 55 55 53 47 39
22 21 20 20 21 21 23 26 31 34 36 38 38 43 50 55 62 69 75 77 78 78 76 76 75 72 72 71 69 71 73 74 73 71 68 66 63 60 56 52 53 53 51 53 56 55 56 55 55 55 51 44
23 22 22 22 22 21 21 22 25 28 34 39 39 43 48 48 55 62 67 70 71 74 74 73 72 70 69 68 66 69 73 75 76 76 75 72 68 66 64 57 55 58 57 54 56 57 56 55 55 55 54 48
24 24 23 24 24 24 23 23 24 24 30 37 40 42 45 46 52 57 60 63 64 65 68 69 69 66 62 60 59 62 69 75 77 79 79 78 75 71 69 63 58 63 65 57 57 60 59 56 54 53 55 52
26 26 26 25 26 26 26 26 27 27 28 33 38 41 44 45 51 57 57 59 63 62 61 64 65 64 60 56 54 56 60 67 73 76 78 81 81 76 73 67 60 62 69 66 60 61 61 56 54 55 56 54
31 31 30 30 29 29 30 30 30 31 32 34 39 42 43 43 48 58 59 58 61 64 62 60 60 59 59 58 53 54 57 59 65 70 73 77 81 81 77 74 67 62 68 72 66 63 64 59 57 58 58 55
35 35 35 35 34 33 33 34 34 35 36 37 40 43 44 44 45 52 59 59 60 63 64 63 61 57 57 56 50 51 57 57 58 62 66 70 74 79 79 78 76 70 69 72 70 65 63 60 59 59 60 58
36 37 37 37 37 36 35 36 36 37 38 39 41 43 45 46 46 49 55 58 58 59 61 63 64 62 61 57 50 49 54 53 53 56 59 61 65 70 75 77 78 77 73 71 71 67 61 57 56 58 60 61
37 37 37 37 37 36 36 36 37 38 38 39 41 42 44 45 46 48 51 54 55 57 59 59 62 63 61 58 56 54 53 50 50 52 55 57 58 60 65 70 74 77 77 74 71 69 65 58 54 55 58 60
40 39 38 38 37 36 36 36 36 37 38 39 41 42 43 44 44 45 47 49 51 54 56 57 57 55 52 51 56 62 59 52 49 51 52 54 56 55 54 57 62 69 74 77 74 70 69 63 55 51 52 54
46 45 43 41 38 37 37 36 36 36 37 38 39 41 42 43 43 43 45 45 47 48 49 50 49 48 47 47 52 59 62 57 54 51 49 50 54 53 50 49 50 55 61 69 73 73 71 67 61 54 49 49
52 51 49 47 43 39 38 38 37 37 38 38 38 38 39 41 42 42 43 43 45 45 46 46 46 47 47 47 50 54 57 57 56 53 49 48 49 50 48 45 45 45 48 54 63 69 71 71 69 62 54 48
57 57 56 54 50 45 41 41 40 39 40 40 39 37 36 37 39 39 40 41 42 43 44 45 45 46 46 47 50 55 54 52 53 54 54 52 49 49 46 44 43 42 41 43 50 60 67 72 73 68 60 53
64 63 62 61 58 53 48 45 44 42 42 44 43 40 38 36 35 36 37 38 38 39 40 41 42 42 43 44 46 52 53 52 54 55 56 56 53 51 49 45 42 41 39 38 41 49 59 66 71 71 65 60
71 69 67 66 64 61 56 52 50 48 48 50 49 44 41 38 36 35 35 35 35 35 36 37 37 38 39 40 41 45 47 49 53 56 56 57 55 52 51 48 44 41 39 38 39 42 50 56 63 67 68 66
77 75 74 72 70 67 64 59 56 54 53 54 52 47 44 41 39 38 37 35 34 34 35 34 34 34 34 35 36 38 41 42 46 52 54 56 55 53 52 50 47 44 43 43 42 40 43 48 54 58 61 62
79 78 77 76 75 72 70 66 62 59 57 55 54 50 47 46 44 42 40 37 36 35 34 33 32 32 31 31 32 33 35 38 40 45 50 53 53 53 54 52 49 46 45 46 46 45 45 47 52 54 55 56
78 78 77 77 76 74 73 71 68 64 60 57 56 55 53 50 48 46 44 42 40 38 37 35 33 31 29 28 29 30 31 34 37 39 44 48 51 52 52 52 49 47 49 48 45 48 50 50 53 54 54 54
76 76 77 76 76 74 73 73 72 69 65 60 57 55 55 53 50 47 48 49 47 44 41 40 37 34 30 28 28 28 28 31 35 38 40 43 48 50 48 47 43 43 51 54 48 49 52 51 52 56 57 56
71 71 72 74 75 74 73 71 70 69 67 65 62 59 56 53 50 50 53 54 54 52 47 44 42 39 35 32 30 29 28 29 31 35 37 40 43 46 44 44 41 36 42 52 51 50 52 49 47 53 60 63
67 67 67 67 69 71 71 69 67 65 64 63 63 63 61 58 54 55 58 60 60 57 53 49 46 44 40 35 33 32 31 30 32 34 36 37 39 42 43 42 41 38 36 43 47 47 49 49 46 46 52 62
66 66 64 61 61 63 65 66 65 63 60 58 58 58 59 60 58 56 58 63 65 62 59 56 51 49 46 40 36 34 34 34 36 39 38 38 39 40 42 43 44 44 39 39 42 43 43 45 46 44 43 50
64 65 63 60 57 57 57 58 59 59 57 54 53 54 54 55 56 56 58 64 69 67 64 63 58 54 51 48 43 39 37 37 37 38 39 40 41 41 41 43 46 48 46 44 43 43 42 41 42 42 40 41
62 62 61 59 57 55 54 53 53 54 53 53 53 53 52 50 49 50 54 60 67 70 69 67 63 59 56 54 52 48 43 39 37 37 39 41 43 44 44 44 44 45 48 49 47 47 47 46 44 42 41 39
59 59 58 56 55 53 51 51 51 50 50 51 53 52 49 45 42 43 46 50 56 63 66 67 65 61 58 56 57 56 52 48 44 43 43 43 43 45 46 46 45 45 45 45 45 47 48 47 46 45 44 41
54 54 53 52 51 49 48 49 50 50 50 49 50 50 48 44 43 45 47 46 44 48 54 58 61 61 58 57 57 58 57 55 53 51 50 48 46 45 45 45 46 46 45 43 41 42 44 45 44 44 45 46
50 50 50 50 49 47 46 46 46 47 49 49 48 47 47 46 46 48 48 46 42 42 43 46 50 55 56 55 56 57 57 55 55 55 54 53 51 49 47 46 45 45 46 46 43 40 38 39 41 41 45 50
46 46 46 48 48 46 46 44 43 43 43 44 44 43 43 43 44 43 42 43 44 45 44 44 45 47 51 53 54 55 55 55 54 54 54 54 54 52 51 51 49 47 47 46 46 43 40 37 37 40 45 48
42 43 43 44 45 45 46 44 42 40 38 38 38 39 39 38 38 37 36 38 44 48 48 48 47 44 45 49 52 53 52 52 52 52 53 52 52 53 53 53 53 51 48 47 47 45 44 42 39 39 41 42

ECMWFFLT2_prec_cthk_033.txt.gz
RH
43 45 46 47 49 51 51 51 50 51 53 54 56 60 63 65 67 68 73 79 83 84 85 86 85 82 80 80 79 76 78 77 75 73 70 66 60 56 57 57 55 58 63 62 61 59 57 59 57 52 48 42
37 38 38 39 41 41 42 41 41 43 45 49 51 54 57 65 69 69 71 73 76 78 81 84 86 86 84 81 79 79 81 79 79 79 75 71 65 60 58 58 55 55 60 61 59 58 57 58 58 54 52 46
33 33 32 32 31 31 32 31 32 34 37 42 46 50 51 57 66 71 73 73 76 78 80 82 82 85 86 83 80 81 83 81 81 81 78 76 73 67 61 58 57 54 56 59 57 57 57 57 56 54 54 50
29 29 27 26 25 24 24 24 25 26 29 33 37 43 46 47 51 60 68 72 74 75 76 76 76 77 79 79 79 80 83 82 81 80 79 79 77 74 68 63 62 59 58 59 58 58 56 57 56 53 54 53
28 28 27 25 24 23 23 23 23 23 23 25 28 33 41 45 44 46 55 62 65 67 69 70 71 70 68 67 70 75 80 83 82 80 80 80 79 78 75 70 67 64 62 62 61 59 57 55 54 54 55 55
32 31 30 28 26 26 25 25 25 25 25 25 26 27 33 42 45 45 46 50 53 57 61 65 68 68 66 62 62 69 73 77 80 80 81 81 80 79 78 77 73 70 66 63 61 59 59 54 51 54 57 56
37 35 34 32 29 28 27 27 28 29 29 29 29 28 29 35 42 45 46 47 49 53 56 60 64 64 69 71 71 73 69 68 72 74 78 80 79 78 79 79 78 77 73 68 63 61 61 57 52 53 56 58
41 38 37 35 32 31 31 30 31 31 32 32 32 32 32 33 37 41 43 45 47 51 56 61 64 62 68 76 81 82 76 67 65 67 71 75 78 77 78 79 80 80 79 75 70 70 69 63 57 54 55 58
46 43 41 39 36 36 35 34 35 35 36 36 36 36 36 37 38 40 41 41 42 46 51 58 64 66 70 77 81 84 83 72 62 61 63 67 72 73 75 78 80 81 80 77 75 79 76 68 63 59 58 59
49 47 45 42 40 40 38 37 39 40 40 42 43 42 41 40 41 42 42 41 41 42 44 48 57 66 69 74 82 85 87 76 63 59 57 57 60 63 69 73 76 79 81 77 75 79 78 72 68 65 63 62
53 51 49 46 44 43 42 41 41 41 42 46 48 48 45 43 43 44 44 44 43 42 42 42 49 61 64 69 80 83 85 80 67 61 57 54 51 52 59 65 69 73 78 79 76 77 76 74 71 68 66 64
57 55 53 50 48 47 45 43 42 41 44 49 50 49 48 44 43 44 45 46 46 44 44 43 45 54 60 65 72 72 74 75 71 66 62 57 52 48 49 53 58 64 71 76 77 77 76 74 73 70 66 63
62 59 56 54 52 51 49 47 45 44 46 51 51 50 49 44 42 44 45 48 49 48 46 45 45 49 55 59 62 63 63 65 67 67 64 61 57 52 48 47 49 55 62 68 72 75 77 77 74 72 69 64
67 64 61 58 57 55 54 52 50 49 49 51 54 54 51 45 43 43 43 47 50 51 51 48 47 46 50 56 58 58 59 59 61 62 62 61 60 58 53 49 46 49 54 58 62 66 71 76 76 73 71 68
71 69 67 64 62 60 58 57 55 55 53 55 58 59 55 49 45 43 43 45 48 52 52 51 52 50 49 53 56 57 57 57 57 58 58 56 57 58 57 54 49 46 48 49 53 57 60 66 72 74 73 71
75 74 73 71 69 66 64 62 61 60 60 62 64 62 60 54 48 47 47 47 46 48 50 50 53 52 52 53 54 58 58 57 56 56 56 55 54 56 57 56 52 50 48 46 48 51 52 56 61 67 71 70
78 78 77 76 75 73 71 69 68 67 68 70 69 67 65 62 57 55 53 51 48 46 47 50 51 51 53 54 55 59 59 57 57 57 57 56 55 55 55 53 50 53 53 49 49 49 48 51 52 55 62 66
79 79 79 78 77 77 76 75 74 73 74 74 72 72 71 70 66 63 60 58 54 51 49 49 51 52 53 54 55 55 53 53 56 55 55 56 57 56 53 47 46 55 57 52 51 49 48 49 50 48 50 56
79 78 78 78 77 78 77 77 76 76 77 76 75 75 75 74 72 68 63 59 57 57 55 52 50 52 53 54 54 52 48 50 53 53 52 53 55 55 52 46 46 55 58 54 52 50 48 48 49 49 47 49
78 77 77 77 77 77 78 77 77 76 75 76 76 77 76 76 75 70 63 57 58 60 59 56 53 51 51 53 54 54 50 49 49 51 53 52 51 51 51 48 47 50 52 53 54 52 50 47 48 50 48 47
76 76 76 77 76 77 78 79 79 77 75 73 73 74 75 76 74 72 68 62 60 62 62 59 56 53 51 51 52 54 53 51 49 49 52 53 52 51 51 50 50 50 51 51 53 54 55 52 50 51 51 49
73 73 73 74 75 75 76 77 78 77 76 73 71 71 71 71 70 71 72 69 66 65 66 64 61 57 54 52 51 52 53 52 51 49 48 50 52 52 53 52 52 54 55 54 55 55 55 56 54 53 52 50
65 66 66 67 69 70 71 72 73 73 74 73 72 71 70 68 66 66 68 70 71 72 72 72 69 64 59 55 53 52 53 52 52 51 49 49 49 51 52 52 51 52 54 54 55 54 51 52 54 54 53 50
54 54 53 54 56 58 61 63 66 67 69 69 67 68 69 67 65 64 64 64 68 73 76 78 77 73 67 62 58 55 53 52 52 52 52 51 51 51 52 52 51 50 52 53 53 53 50 46 47 48 50 50
47 46 45 47 47 48 50 54 57 60 63 65 64 64 65 65 64 64 63 61 61 66 71 75 76 76 75 70 65 60 57 54 52 51 52 53 52 52 52 51 51 50 51 53 53 53 53 49 46 43 43 46
48 49 48 47 45 44 46 47 49 51 54 60 63 63 62 61 61 62 61 59 59 60 64 68 69 69 71 72 68 63 60 58 55 53 52 52 52 51 51 50 50 50 49 50 51 51 51 51 50 46 41 40
44 52 51 47 44 44 45 44 46 45 46 50 54 56 57 57 58 59 60 59 58 58 57 59 60 61 62 65 66 63 61 60 59 56 54 52 52 50 50 48 47 49 48 47 47 48 48 47 46 45 43 41
32 45 49 49 47 44 42 42 43 43 42 43 44 46 48 50 52 54 56 57 57 56 54 52 52 55 57 59 61 61 60 59 59 58 56 54 53 52 51 48 47 46 45 45 44 44 44 44 43 42 41 40
29 36 39 42 42 39 38 39 41 41 40 39 40 39 40 42 44 46 49 53 54 54 53 51 48 50 55 56 57 59 58 58 58 58 57 56 55 54 52 51 49 46 44 44 43 42 40 39 40 40 41 41
41 38 35 34 33 33 34 36 38 40 39 38 36 35 35 36 38 40 42 45 47 48 49 47 45 48 53 55 56 58 58 57 56 57 56 56 56 55 54 53 51 49 47 45 44 44 42 39 37 37 40 44
58 54 49 44 39 35 33 32 32 34 35 36 36 34 34 33 33 35 36 38 39 41 43 44 43 47 50 52 52 54 57 56 55 56 54 53 54 55 56 55 53 51 49 47 46 46 46 44 42 39 38 41

ECMWFFLT2_prec_cthk_036.txt.gz
RH
49 49 50 52 54 56 56 56 58 60 61 63 65 67 69 71 77 79 82 88 90 87 87 91 93 94 93 92 89 88 85 84 84 83 81 78 74 72 68 63 60 61 66 70 71 69 67 62 58 55 51 46
48 48 47 46 46 46 47 48 51 52 53 55 57 59 61 64 68 71 70 73 80 83 83 83 87 93 94 93 92 90 88 85 83 81 81 81 78 77 76 72 66 62 61 64 67 69 68 62 58 57 54 50
48 47 45 43 42 42 41 42 43 45 46 48 50 52 55 57 58 60 59 58 63 72 80 79 78 84 89 90 91 90 88 89 90 86 83 83 82 82 81 79 75 69 64 63 64 66 66 62 58 57 56 54
46 46 44 42 41 41 40 39 38 39 39 40 42 43 46 49 50 51 51 50 51 56 66 74 73 73 76 78 80 81 83 88 92 93 90 86 85 86 86 83 80 75 69 68 67 65 63 61 60 60 57 55
44 43 42 41 39 40 38 36 36 35 34 33 33 33 35 37 41 44 45 45 47 48 50 60 69 73 73 74 77 78 80 85 89 92 92 87 85 89 89 86 83 78 74 71 70 68 63 60 60 61 59 56
45 44 43 42 40 40 37 35 34 32 30 30 28 28 27 28 30 33 38 40 42 44 45 48 60 71 75 77 82 84 84 87 89 90 91 88 86 88 90 87 84 81 78 74 72 71 67 61 59 60 60 59
48 47 47 46 45 44 41 38 36 33 31 29 28 27 26 25 25 26 30 34 37 40 41 43 50 62 70 74 78 82 85 87 86 86 86 87 87 85 87 88 87 85 81 78 75 73 71 67 63 61 62 62
52 51 51 50 50 49 47 46 43 40 36 34 33 31 28 27 26 26 27 30 36 39 40 39 42 50 60 67 73 76 79 81 81 79 77 79 82 81 83 87 89 87 85 82 80 78 76 71 67 65 64 63
58 57 56 55 54 52 51 50 49 47 44 41 42 39 34 30 29 28 28 30 34 39 41 40 38 41 48 57 65 71 74 76 77 76 72 72 74 75 79 84 87 87 87 85 83 83 80 75 71 69 67 64
65 64 63 62 60 58 56 54 53 52 50 47 50 49 43 38 36 33 31 31 33 36 39 40 40 39 42 46 51 59 67 71 74 75 74 74 73 73 75 78 82 85 86 85 82 83 83 80 75 71 69 67
72 70 68 67 66 64 62 60 57 55 54 52 52 54 53 48 45 41 37 36 36 37 37 39 40 40 40 41 42 46 52 59 66 72 77 80 79 78 77 76 77 80 84 84 81 81 85 86 79 72 70 70
75 73 71 69 67 66 65 64 62 59 57 55 53 56 58 54 52 48 44 42 40 41 40 40 41 41 41 40 40 40 42 47 54 63 72 79 81 82 82 80 77 76 80 84 83 81 83 86 82 74 69 70
75 74 72 70 68 66 65 64 64 63 61 59 56 57 58 54 52 50 48 47 45 45 44 43 42 42 42 42 42 42 41 42 46 53 62 68 73 79 83 83 82 79 78 79 82 84 81 82 83 76 69 68
75 74 73 72 72 70 68 66 65 64 63 62 61 60 57 53 50 48 48 49 49 48 47 46 45 43 43 44 45 46 47 45 44 47 55 60 64 73 81 83 83 82 78 74 76 81 80 78 79 77 74 71
75 75 74 74 74 73 72 71 69 68 66 64 64 62 60 56 54 51 49 49 49 49 49 49 48 46 45 46 48 50 51 50 48 46 51 59 64 69 79 82 80 80 78 74 71 72 73 73 75 75 75 74
78 77 77 77 76 76 75 74 73 73 71 69 67 65 63 61 59 57 54 51 49 47 48 48 48 48 46 46 50 53 54 55 55 51 50 57 63 69 80 84 79 76 76 75 70 66 64 65 68 71 72 73
78 78 78 78 78 77 77 77 76 75 75 74 73 70 67 64 63 62 59 55 51 48 46 44 46 49 49 47 49 55 58 58 57 54 53 58 60 66 80 86 84 80 76 76 74 68 63 60 60 63 66 71
73 73 74 75 76 76 76 77 78 79 79 79 78 76 73 70 67 66 64 61 57 53 49 46 46 50 52 49 48 51 55 56 56 55 57 60 58 59 70 78 82 84 81 78 76 71 65 60 57 56 59 64
65 65 65 67 68 70 71 72 74 77 80 81 80 79 78 76 72 70 68 68 65 61 57 53 50 51 54 55 50 46 47 52 55 54 55 58 60 62 65 67 69 75 79 78 74 70 66 62 59 56 55 57
54 56 57 57 59 60 62 63 64 67 71 75 77 78 78 78 76 74 72 70 69 67 65 62 57 54 56 59 57 50 46 47 51 54 55 55 61 66 69 69 64 62 66 70 69 65 62 61 60 59 56 55
43 45 47 49 50 52 54 54 55 57 59 62 66 70 72 74 75 76 76 72 71 70 70 69 66 61 59 61 63 59 52 48 49 54 57 55 55 60 66 72 72 67 64 66 68 64 60 59 58 58 58 56
37 37 39 41 42 44 47 48 50 50 52 53 55 59 61 64 67 72 75 74 73 73 72 71 70 68 65 65 67 66 60 54 51 52 55 54 52 53 57 63 69 71 68 66 66 65 63 60 56 56 57 56
28 29 32 35 35 36 38 40 43 45 47 49 49 50 51 54 58 62 65 68 73 76 76 74 72 72 71 70 71 71 68 62 57 54 53 54 53 53 52 53 57 63 65 65 64 61 58 57 54 54 57 57
20 21 23 26 28 31 33 34 36 39 42 45 46 46 46 48 51 53 56 58 63 69 74 76 74 73 72 71 71 72 71 68 64 60 56 54 54 55 55 54 55 58 62 64 63 58 54 52 51 51 53 55
24 23 22 22 24 27 30 31 33 35 37 39 41 43 44 45 47 48 49 51 54 58 65 71 73 72 71 69 67 67 67 66 66 66 63 58 55 54 56 56 56 57 58 60 60 58 54 50 49 48 50 52
41 40 37 34 31 30 31 33 36 38 39 38 38 39 40 42 43 44 45 47 49 51 55 61 66 67 67 67 65 64 62 62 62 62 63 64 61 58 56 55 53 54 55 56 57 57 55 51 48 47 48 49
53 52 51 49 46 43 41 40 41 42 43 43 41 39 38 39 40 42 43 45 46 47 48 53 57 60 61 62 62 61 60 61 61 59 59 62 63 61 60 57 53 53 54 54 54 55 55 52 49 48 47 46
56 56 56 55 54 53 51 49 47 44 43 44 44 42 42 41 41 40 41 42 44 46 46 47 51 55 56 57 57 57 58 60 63 62 59 60 62 62 62 60 58 57 56 55 54 54 53 52 52 51 48 46
56 57 58 57 57 57 56 55 53 50 47 45 44 44 45 46 45 44 43 42 42 44 45 46 47 50 53 55 54 54 55 57 61 63 61 60 62 64 63 61 61 61 59 55 54 54 52 51 52 51 49 49
58 58 57 56 56 56 56 57 57 56 54 50 47 45 45 46 47 48 47 46 45 45 45 46 45 46 48 52 54 54 53 55 56 58 59 60 61 63 63 62 61 62 61 58 54 53 51 50 51 50 50 50
60 60 59 58 57 56 56 57 57 57 55 54 53 50 48 47 46 47 47 47 48 48 49 49 48 46 45 48 52 53 51 51 53 54 55 54 55 58 60 61 61 61 61 60 56 52 50 50 50 50 51 52

ECMWFFLT2_prec_cthk_039.txt.gz
RH
56 56 56 57 57 55 55 55 56 61 68 75 80 83 86 87 88 91 93 93 93 92 91 91 91 91 92 93 95 95 95 93 92 90 87 86 86 85 84 82 77 72 71 71 72 73 74 75 72 65 61 57
57 56 55 56 57 56 55 55 55 54 56 60 66 73 78 80 80 81 84 87 88 88 89 91 90 91 96 97 96 95 96 96 94 92 89 87 87 86 84 84 82 77 73 71 71 71 73 73 70 67 64 60
61 59 58 57 58 58 56 56 56 57 56 55 57 62 67 72 75 75 76 77 79 81 84 86 85 87 95 97 96 95 95 97 97 95 92 90 91 90 87 85 85 83 80 77 73 71 71 70 68 68 66 62
65 64 62 61 60 60 60 59 58 58 59 59 58 58 59 62 66 69 71 71 71 71 74 77 78 80 86 91 93 93 92 95 97 98 97 94 95 95 92 88 86 86 85 84 80 75 72 70 69 67 66 64
68 68 66 64 64 63 63 63 61 60 58 58 57 54 54 55 56 59 62 64 64 62 63 67 71 74 76 79 85 88 88 91 94 97 97 97 98 97 94 90 89 88 87 87 85 83 79 74 72 67 67 66
69 70 69 68 67 67 67 66 66 64 62 59 56 51 49 50 51 50 51 52 54 55 56 58 63 67 68 68 72 79 83 85 87 91 94 96 98 98 95 91 90 91 90 88 87 87 86 81 76 72 70 67
71 72 72 71 69 69 69 69 70 69 67 64 60 56 51 48 47 45 42 42 43 46 48 51 54 57 60 60 61 67 76 80 80 83 87 90 92 93 94 92 90 90 92 92 89 89 90 87 81 78 76 72
75 76 75 75 73 72 71 71 71 71 70 68 65 62 58 54 50 46 41 38 37 38 39 42 45 48 49 51 53 56 65 76 78 78 79 82 83 82 85 91 92 90 91 93 93 92 91 90 87 83 80 77
79 80 79 78 78 77 75 74 72 72 72 71 69 65 63 62 58 52 47 42 37 35 34 35 37 39 41 43 46 47 52 63 74 78 79 79 79 78 81 88 92 92 91 92 94 93 91 90 89 87 85 81
81 82 82 81 80 80 79 78 76 74 73 72 70 67 65 66 64 59 54 49 43 39 35 35 35 35 36 38 40 43 45 48 58 71 80 79 79 84 85 87 92 94 94 93 93 92 90 88 88 88 87 85
79 81 82 81 81 80 78 79 79 77 75 72 70 68 66 67 67 63 59 55 50 46 41 40 39 37 36 37 38 40 43 44 46 55 70 79 81 85 86 88 91 91 91 92 92 90 88 87 87 89 88 87
78 79 79 79 79 78 77 76 76 76 75 73 71 69 67 67 66 64 61 58 55 52 48 46 44 41 39 39 40 40 41 44 46 48 58 73 80 82 83 86 89 88 87 87 89 90 89 88 87 88 89 88
74 76 77 77 76 75 75 74 73 73 73 72 71 69 68 67 66 65 63 61 58 55 53 51 48 45 43 41 41 41 40 40 44 47 52 62 71 75 78 83 87 88 89 88 87 87 87 89 88 88 88 87
67 71 73 74 74 74 74 72 71 71 71 71 70 69 68 67 66 65 64 63 61 59 56 53 50 47 46 45 42 41 41 40 40 43 47 53 60 66 71 78 83 88 92 92 89 85 83 83 84 87 87 85
52 60 65 67 68 69 71 71 70 69 70 71 71 71 69 68 67 65 64 64 63 61 59 56 52 49 48 48 46 42 40 40 41 41 42 44 49 56 64 70 77 83 89 91 91 87 83 82 79 81 83 84
37 44 51 56 58 61 64 65 65 65 67 69 71 72 72 70 68 66 65 64 64 63 61 59 56 53 50 49 48 45 42 41 41 41 41 40 41 46 53 61 69 78 85 88 89 88 88 89 85 82 80 80
30 32 36 43 49 54 58 60 60 60 62 64 66 70 72 72 71 68 67 65 64 63 62 61 59 56 53 50 49 48 46 44 42 42 41 41 40 40 44 49 56 67 78 84 86 87 88 90 90 88 84 81
25 26 27 31 37 44 50 55 56 57 58 60 62 64 65 67 69 69 69 68 66 65 63 62 61 59 56 53 51 50 50 47 45 43 42 41 40 39 39 42 46 53 64 73 79 83 85 87 89 89 88 86
20 19 20 23 26 31 37 44 49 51 53 56 58 60 60 60 61 63 66 68 69 67 66 64 62 60 58 56 52 51 51 51 49 47 45 44 42 40 38 41 46 48 52 59 67 77 85 87 89 89 89 87
22 20 18 18 19 21 25 30 36 42 45 48 51 55 57 57 57 57 59 63 66 66 67 66 65 63 61 59 55 51 51 53 54 52 50 48 47 45 42 43 46 49 51 54 58 69 83 89 89 90 90 88
31 29 25 22 20 18 19 21 24 30 36 40 44 48 51 53 54 54 54 56 58 60 63 66 67 67 65 62 58 54 52 54 56 56 55 52 51 50 48 47 47 49 52 56 58 62 74 85 89 91 91 89
35 35 33 31 29 25 22 21 20 21 26 31 37 41 44 47 49 51 52 52 52 54 58 61 64 66 67 66 64 60 57 57 58 60 59 56 54 53 51 49 48 50 52 55 58 58 63 73 82 87 89 88
40 39 38 37 36 34 31 29 27 25 25 26 30 35 40 42 44 46 49 50 50 51 53 55 56 59 61 64 67 67 63 60 59 59 60 59 57 55 53 51 50 52 52 52 53 55 57 60 67 75 83 87
45 46 46 46 45 43 41 39 38 36 34 32 31 33 37 39 42 43 44 46 47 48 49 49 50 52 54 57 60 63 65 63 61 58 56 56 57 57 55 53 52 52 53 53 50 48 50 53 56 61 75 88
44 47 51 52 52 50 49 48 47 45 43 40 38 37 37 38 40 41 42 43 43 44 45 46 46 47 49 51 53 55 58 61 62 61 57 54 55 57 58 56 54 52 52 55 54 50 48 51 53 52 64 81
42 46 50 53 55 54 52 52 51 50 49 46 43 42 40 39 39 39 40 41 42 41 42 43 44 45 45 46 48 50 52 55 58 60 61 58 56 56 57 57 58 56 52 52 55 56 52 53 53 49 57 72
45 48 50 52 54 55 53 52 51 50 51 51 49 46 43 41 39 38 38 40 41 41 42 42 42 42 43 44 45 46 48 50 53 56 61 64 64 62 59 56 57 60 57 52 51 54 54 54 55 51 55 67
50 51 51 51 52 53 52 51 50 49 50 51 50 49 47 45 43 41 40 39 39 40 41 41 41 41 41 41 41 43 45 48 51 53 58 66 70 71 67 62 60 61 62 58 53 53 53 53 56 56 56 64
51 52 51 49 49 50 51 51 51 51 51 51 51 51 51 51 50 47 44 41 38 37 37 38 39 40 40 40 41 41 42 45 49 51 55 62 67 71 72 69 68 66 66 66 61 56 54 53 56 56 56 63
49 50 49 49 49 50 53 57 57 55 55 54 54 53 52 52 52 50 48 45 42 40 38 37 37 38 39 40 43 43 42 42 45 48 51 55 61 66 68 69 70 70 70 72 69 63 57 55 54 54 55 61
48 49 50 51 50 52 57 60 60 59 58 56 55 54 53 52 52 51 50 49 47 45 43 41 39 38 37 37 39 42 43 43 43 44 46 50 54 57 61 66 68 69 70 71 72 71 64 58 55 54 54 56

ECMWFFLT2_prec_cthk_042.txt.gz
RH
41 46 53 57 57 58 58 61 68 74 78 78 77 77 82 88 91 93 91 91 93 95 97 97 96 98 97 97 98 96 96 97 96 96 96 94 93 91 90 90 87 88 89 90 90 86 83 79 75 74 69 64
42 44 49 56 59 60 60 60 63 70 78 81 79 76 75 79 83 88 90 90 91 92 94 95 96 97 95 95 97 96 96 98 99 98 97 96 96 95 93 92 91 90 89 90 93 91 87 82 80 77 73 72
42 46 48 52 57 61 62 63 64 67 72 78 80 76 72 75 78 79 83 86 88 89 91 93 94 95 94 94 96 97 97 98 98 98 98 98 97 96 96 96 94 93 90 89 92 95 94 89 85 80 75 74
43 47 49 50 54 59 62 64 66 69 72 74 76 75 72 74 78 77 76 79 83 84 85 89 92 93 93 94 96 96 96 96 95 95 96 98 98 97 97 98 97 96 93 90 91 94 95 94 89 82 75 73
46 48 50 52 53 55 60 64 66 69 72 74 74 73 71 72 75 78 74 72 77 81 80 82 85 87 90 92 94 94 95 94 94 94 95 96 98 98 99 99 100 99 96 92 93 92 92 95 93 85 78 75
46 48 49 52 53 54 57 61 65 68 70 72 74 75 74 72 71 74 74 69 70 76 79 79 80 81 83 86 89 91 92 93 93 94 95 96 96 97 99 100 100 100 99 97 95 94 93 94 93 89 82 77
45 46 48 50 51 53 55 58 62 66 69 70 71 74 75 75 73 72 73 71 68 70 74 77 79 79 79 79 82 86 89 92 93 93 94 95 96 96 97 99 100 100 100 100 98 96 96 94 91 90 86 81
41 43 45 47 49 51 52 55 58 61 65 68 69 72 75 76 76 75 74 73 71 70 70 73 75 77 78 76 77 80 83 86 90 92 92 94 95 94 95 97 99 100 100 100 100 98 97 96 95 94 91 88
35 38 41 44 46 48 49 51 54 56 59 62 65 67 71 73 75 76 76 75 74 72 71 70 71 72 74 74 74 75 76 79 83 87 89 91 94 94 94 96 97 99 100 100 100 99 98 97 97 96 93 90
32 34 36 40 42 43 45 47 50 53 54 55 58 61 65 68 71 73 76 76 75 74 73 70 69 69 70 71 72 71 72 73 76 81 85 87 91 93 93 93 94 95 96 97 99 98 99 98 97 97 94 90
34 34 33 34 36 39 42 45 48 53 55 55 55 57 59 63 67 69 71 73 74 75 74 71 69 68 67 67 67 67 67 68 69 72 78 82 84 86 89 90 90 91 92 93 95 95 97 100 99 98 98 93
30 33 34 33 32 33 36 41 46 52 58 60 58 58 58 59 62 64 66 67 70 72 73 73 70 68 67 65 63 62 61 62 64 64 68 74 75 76 80 85 88 89 90 91 91 91 93 95 97 99 99 98
23 25 29 32 32 30 30 33 39 47 56 61 63 62 61 60 59 58 61 63 65 67 69 71 71 70 68 66 62 59 57 56 58 59 60 63 66 67 68 74 81 86 88 90 91 91 90 88 91 96 97 97
21 20 22 25 28 29 28 27 31 38 48 57 63 64 65 65 63 59 57 58 61 63 65 67 69 69 68 67 64 60 56 53 53 55 55 54 56 59 59 61 68 79 84 86 90 93 94 91 89 91 93 95
21 20 20 21 20 21 23 25 28 31 38 48 57 61 64 67 68 65 62 59 59 60 62 63 64 66 67 67 66 63 59 55 53 51 51 50 48 50 53 54 57 67 79 82 85 91 96 96 94 93 92 95
24 23 22 22 21 19 17 20 24 27 31 38 46 53 59 65 68 68 67 64 61 60 60 61 61 62 63 64 65 64 61 58 55 52 50 48 45 43 45 49 50 57 71 79 81 85 90 92 97 99 95 95
25 25 25 24 24 23 21 19 20 21 25 29 35 42 49 57 64 67 68 66 65 63 60 60 60 61 61 61 61 61 60 59 56 53 51 47 44 42 40 42 45 49 60 74 78 79 80 85 94 99 98 96
25 25 26 27 27 27 26 25 24 20 20 22 25 32 39 47 53 59 64 64 64 65 64 62 60 60 60 60 59 59 58 57 56 55 53 49 45 43 40 38 39 43 49 62 73 76 74 79 91 95 98 98
25 25 26 27 28 29 30 30 30 28 24 22 21 23 30 37 44 49 54 58 60 62 64 64 62 61 61 61 60 60 58 57 56 55 54 53 49 45 42 39 37 38 41 49 63 74 76 79 88 92 95 98
25 26 27 27 28 29 31 32 33 34 32 29 26 23 22 27 35 41 46 50 53 56 58 60 61 61 60 61 61 61 61 60 58 56 55 55 54 50 46 42 40 38 38 39 47 64 75 78 83 88 90 94
26 28 29 28 29 28 29 32 34 36 37 36 35 31 26 24 26 32 39 44 47 51 52 54 56 57 57 57 59 61 62 62 62 60 58 55 55 54 51 47 43 40 40 39 38 49 67 74 76 82 85 89
27 28 30 30 31 31 31 32 35 37 39 40 40 39 36 31 27 27 31 37 42 46 48 49 51 53 55 55 56 58 59 61 62 61 60 58 55 52 51 50 48 44 41 40 37 39 53 66 71 76 81 85
27 29 31 32 34 35 35 35 37 39 41 44 45 44 43 40 35 30 28 30 34 39 43 45 47 49 51 54 55 55 56 58 59 59 59 59 57 53 49 48 48 48 45 42 39 36 42 53 63 71 75 80
28 31 34 36 37 39 40 39 39 39 40 44 47 48 47 45 41 37 33 30 30 33 37 42 45 46 47 50 52 53 54 55 56 58 58 58 58 56 52 48 45 47 47 44 40 38 37 40 51 63 68 73
28 32 36 38 39 41 42 43 42 41 40 42 46 48 47 46 45 43 41 36 33 31 32 36 41 44 45 45 47 50 53 54 55 56 58 59 58 56 55 52 48 45 45 45 41 39 37 33 39 49 54 61
27 32 36 38 39 41 41 43 44 44 43 43 44 46 46 47 47 47 46 43 39 34 31 30 33 37 41 43 44 46 49 52 54 55 55 57 57 56 55 55 55 51 47 47 45 42 39 34 33 37 42 54
27 32 36 38 38 39 40 41 42 43 43 43 44 46 47 48 48 49 48 46 44 40 36 32 29 30 33 37 40 43 44 47 50 53 54 54 55 55 56 56 57 57 55 53 51 48 45 42 41 37 37 50
27 30 33 36 37 38 38 38 40 42 43 44 45 46 48 48 49 49 49 49 47 44 41 37 33 30 28 29 32 37 41 43 45 47 50 52 53 54 56 57 57 58 58 58 56 55 54 52 51 45 39 44
26 28 31 34 35 36 38 38 40 43 44 45 45 46 47 47 48 48 48 48 47 46 44 41 38 34 30 28 28 31 35 39 41 43 45 49 52 54 55 56 56 58 59 59 58 60 60 59 58 54 48 44
24 27 29 32 33 35 38 40 42 44 44 44 44 45 45 46 46 46 46 45 45 44 43 42 40 39 36 33 30 29 30 32 36 39 42 45 47 50 52 53 55 56 59 60 59 59 61 62 62 59 58 54
23 27 30 31 33 35 37 40 42 43 43 43 43 43 43 44 44 44 44 44 43 43 43 42 42 41 40 39 37 35 32 31 32 34 38 42 44 46 48 50 52 53 56 59 59 59 61 61 61 60 61 62

ECMWFFLT2_prec_cthk_045.txt.gz
RH
19 23 24 24 23 24 29 34 35 34 34 39 50 60 68 80 86 84 86 89 91 92 93 96 98 98 98 98 98 97 98 99 99 99 98 97 96 95 94 95 95 95 95 94 93 94 94 91 88 82 77 76
19 23 26 27 26 26 28 34 39 39 38 39 46 59 66 73 82 85 85 86 88 90 89 91 94 96 97 97 97 96 95 96 97 98 98 97 98 97 97 95 95 96 98 96 93 93 95 95 91 85 81 79
18 21 24 26 27 27 27 30 37 41 41 41 43 54 67 73 77 83 85 84 85 87 88 90 91 93 95 95 96 96 95 94 94 95 96 97 97 99 99 97 97 97 99 99 95 93 94 96 95 93 88 82
17 19 21 24 26 26 26 26 30 36 40 42 43 47 59 71 77 79 83 84 83 85 85 87 89 90 92 93 93 94 96 95 94 92 92 94 96 98 100 98 98 98 98 99 97 95 94 94 95 95 92 87
16 17 18 21 23 24 25 25 25 29 33 38 41 43 47 61 74 78 79 82 83 83 83 83 86 87 89 90 90 91 93 95 95 93 91 92 94 95 97 99 99 99 99 99 99 97 96 95 95 95 94 91
12 15 16 17 20 22 23 25 25 26 28 31 35 39 41 48 63 75 78 80 82 83 82 81 83 85 87 87 87 88 89 92 94 95 94 93 94 94 95 97 98 100 100 99 99 99 97 96 96 94 94 93
9 11 14 16 18 20 21 23 25 26 27 28 29 32 37 40 48 62 73 76 77 81 82 80 80 82 83 83 84 85 87 89 90 92 93 94 95 95 95 95 96 98 99 100 99 100 99 98 97 93 94 95
9 10 12 15 17 19 20 21 23 25 26 28 29 29 32 36 39 47 60 70 74 76 79 80 78 79 80 81 81 82 84 86 87 87 88 91 93 94 96 96 95 95 97 99 99 100 100 99 98 95 95 96
11 11 12 12 14 16 18 19 21 23 24 25 28 29 30 32 36 39 46 58 67 71 74 76 77 77 76 78 80 80 81 83 83 83 84 86 88 91 94 96 97 95 95 96 97 98 100 100 99 98 96 94
13 13 13 13 13 13 14 16 18 20 23 24 25 27 29 31 34 37 39 45 55 64 71 72 73 75 75 74 76 78 79 80 81 80 81 82 84 86 90 93 96 96 95 95 95 96 97 99 100 99 97 94
16 16 16 15 15 14 14 14 16 18 20 22 23 24 27 30 32 35 38 41 45 53 63 70 72 73 74 73 73 74 75 77 78 78 79 80 80 82 85 89 93 95 96 95 95 95 95 96 98 100 99 96
17 17 17 17 17 16 16 15 15 16 17 18 21 22 23 27 30 32 36 39 42 45 52 61 68 72 74 74 72 72 72 73 75 75 76 78 78 78 80 85 89 92 95 95 96 96 95 95 95 97 99 99
17 16 16 16 17 17 17 18 17 16 16 16 17 18 20 24 27 30 33 37 41 43 45 50 58 65 71 75 73 71 69 69 71 72 73 74 76 76 76 78 82 87 91 93 94 96 96 96 95 95 96 98
17 16 16 16 16 16 17 18 19 19 18 16 15 15 16 20 24 26 30 35 39 41 43 45 48 55 62 68 72 71 70 68 67 69 70 71 72 74 74 74 75 78 84 88 89 92 95 95 95 95 95 95
17 16 15 15 14 15 15 16 17 19 20 19 17 16 15 17 21 24 27 32 36 40 42 43 44 47 50 56 63 67 69 69 68 66 67 68 69 70 71 72 72 72 75 80 83 86 91 94 94 94 95 95
16 15 14 14 14 14 15 16 17 18 20 22 21 20 17 16 18 21 24 27 31 36 40 43 45 45 45 46 51 57 62 64 65 66 64 64 66 68 69 69 70 70 70 72 75 79 84 88 92 94 95 95
15 15 15 14 15 16 17 18 20 20 20 21 23 24 22 20 20 20 21 23 27 31 36 42 45 46 45 44 44 47 53 57 59 62 62 63 63 65 66 67 68 68 67 68 70 73 77 82 86 90 93 94
16 15 15 15 17 19 20 21 22 22 22 21 23 25 25 25 25 24 21 20 21 25 31 37 43 46 48 48 46 44 45 49 53 57 60 61 62 62 63 65 66 66 65 66 66 67 71 75 80 84 88 91
17 16 15 16 18 20 22 23 24 24 24 23 24 25 26 27 29 28 25 22 20 21 24 30 37 44 48 50 51 50 47 45 47 51 56 59 60 61 61 61 63 64 64 64 63 63 65 68 73 78 82 86
18 17 17 18 19 21 22 23 25 26 27 27 28 28 28 27 29 30 30 28 25 22 21 22 28 36 43 49 52 53 52 49 47 47 50 54 58 59 59 59 59 60 62 62 61 61 61 61 63 69 75 81
21 20 19 19 19 20 21 23 25 28 30 31 31 31 31 30 29 31 33 32 30 28 24 21 21 26 35 43 49 53 54 54 53 51 50 51 54 57 58 58 58 57 58 59 59 58 58 58 58 59 65 73
23 21 19 18 18 20 21 23 25 28 30 31 32 33 32 32 31 32 33 35 34 33 30 26 22 21 26 33 41 49 53 55 54 54 55 55 55 56 57 58 57 56 56 56 56 57 56 56 56 54 56 64
24 22 20 18 18 20 22 23 25 27 29 30 31 32 31 31 32 34 35 37 37 36 35 33 28 24 22 25 32 40 48 53 55 55 56 58 59 58 57 58 58 57 56 55 54 55 55 54 54 53 53 56
25 23 21 18 18 20 21 23 26 27 29 29 29 30 31 31 31 33 36 38 40 39 37 36 35 31 26 23 26 32 39 46 51 54 55 57 60 62 60 59 59 58 56 54 53 53 53 53 52 52 53 54
26 25 22 19 18 19 20 22 25 27 28 29 29 30 31 32 32 33 35 37 40 41 39 38 37 37 34 29 26 26 31 37 44 49 53 55 57 59 60 59 60 59 57 55 53 52 52 52 51 50 51 54
27 26 24 21 17 17 20 21 23 26 28 29 30 31 32 33 34 34 34 36 39 41 41 40 39 39 38 36 31 27 27 32 38 44 48 50 52 53 55 57 59 60 59 56 55 54 52 51 51 49 49 52
27 26 24 22 19 17 19 21 22 25 27 29 30 31 32 34 35 35 36 37 38 40 40 39 39 39 39 38 36 32 28 27 32 38 42 44 45 47 49 52 55 58 59 59 57 56 54 54 54 52 49 49
28 27 26 24 20 18 18 20 22 24 26 27 29 31 32 34 35 36 37 37 38 39 39 39 38 38 37 37 36 34 31 26 24 28 34 40 42 43 46 48 51 54 57 59 59 58 59 58 56 55 53 50
29 28 26 25 22 19 18 20 22 23 25 26 28 29 30 32 33 34 36 36 37 38 39 39 38 38 37 37 36 35 33 29 25 23 25 32 39 43 46 47 49 51 53 55 58 60 61 61 61 60 57 53
31 29 27 26 23 20 18 20 21 22 24 26 27 29 29 30 32 33 34 35 36 36 37 37 37 37 37 37 37 37 35 34 32 29 26 27 33 40 46 48 48 49 50 52 54 57 59 61 65 64 61 59
32 31 28 27 25 21 19 20 22 23 24 25 27 29 30 31 32 33 34 34 35 36 35 36 36 37 37 37 37 37 38 37 36 34 32 31 30 34 41 47 50 50 50 50 51 53 55 57 59 59 60 62

ECMWFFLT2_prec_cthk_048.txt.gz
RH
11 10 10 10 10 10 10 10 10 9 9 9 10 9 9 10 14 18 26 46 68 74 76 82 87 91 93 94 96 98 98 98 98 99 99 98 95 92 94 99 99 96 92 92 96 98 100 99 96 94 90 88
11 10 9 9 9 9 9 9 9 8 9 9 9 9 8 8 10 13 17 27 51 70 72 76 82 86 90 92 93 96 97 97 97 98 99 99 97 92 91 96 98 98 95 93 96 97 99 100 98 96 92 89
9 8 8 7 7 7 8 8 8 8 8 8 8 8 9 9 8 10 13 16 32 56 68 70 75 82 86 89 91 92 94 95 96 97 98 99 99 96 93 93 94 95 95 94 96 97 99 100 100 97 94 93
8 7 7 7 6 7 7 8 8 8 8 8 8 9 9 9 9 9 11 13 20 39 60 67 70 75 81 86 89 89 90 93 95 96 96 97 98 99 97 95 94 93 94 94 96 98 99 100 100 98 96 96
8 8 8 8 7 7 8 8 9 9 8 9 8 8 9 9 9 10 10 12 16 26 46 61 65 71 77 81 87 88 87 90 93 95 95 96 96 98 99 97 95 94 94 95 97 98 99 101 100 99 97 97
9 9 9 9 8 8 8 9 9 9 9 9 9 8 9 9 9 10 9 10 14 19 34 52 60 64 71 77 82 86 86 87 90 93 94 95 94 95 98 99 98 96 95 95 97 97 98 100 100 99 98 96
10 9 10 10 9 10 10 10 10 11 11 11 11 10 10 10 10 10 10 10 12 16 25 42 54 57 63 71 77 82 85 86 87 90 92 94 94 94 95 98 98 97 96 96 96 96 96 98 99 99 99 97
10 10 11 11 11 11 12 12 12 12 12 13 13 13 12 12 11 11 12 11 11 13 18 32 47 53 56 62 70 77 82 85 86 88 89 91 93 93 94 95 97 96 96 97 97 96 96 96 98 98 99 98
11 11 11 12 12 12 13 14 14 14 14 14 13 14 14 13 13 12 13 13 12 12 13 21 36 48 52 55 62 69 75 81 84 86 87 87 90 92 93 93 94 94 94 95 97 98 97 96 96 97 99 99
12 13 13 13 13 13 14 14 15 15 15 14 14 14 14 14 14 13 12 13 13 13 13 15 24 36 46 51 57 62 67 74 79 83 86 87 87 89 91 92 93 92 92 93 95 98 99 97 96 96 97 98
14 14 14 15 14 14 14 14 15 15 15 14 13 13 13 13 14 14 13 13 13 14 15 15 18 25 35 45 53 58 62 68 73 78 83 86 85 86 87 90 92 91 90 90 93 95 98 99 98 96 95 95
15 15 15 15 14 14 14 15 16 16 16 14 13 13 13 13 14 15 15 14 14 15 15 16 17 19 24 35 48 56 59 62 67 72 77 82 83 84 86 87 89 90 89 88 90 92 95 97 98 98 97 95
16 16 16 16 15 15 15 15 16 16 16 14 13 13 13 14 14 15 16 16 16 16 16 15 16 17 19 25 37 49 57 60 63 66 71 76 79 81 84 86 86 87 88 87 88 90 92 94 97 98 99 98
17 17 17 17 16 16 15 15 15 16 16 15 15 15 15 15 15 15 16 17 18 18 18 16 14 15 16 18 25 37 49 57 61 64 67 70 74 76 80 84 85 85 86 86 87 89 89 90 93 96 98 100
18 18 18 18 18 17 16 15 15 16 17 17 17 16 16 16 16 17 16 17 18 19 19 19 16 15 14 15 18 25 38 50 58 63 65 66 69 72 74 79 82 83 84 85 85 85 87 88 89 93 96 98
18 19 19 19 19 18 17 17 17 18 18 18 17 17 17 17 17 17 18 18 19 19 20 21 20 17 15 14 15 19 28 40 50 59 65 65 66 68 70 73 77 80 82 84 84 83 84 85 86 88 92 95
19 20 19 20 20 20 20 19 18 18 18 18 17 17 17 18 19 19 20 21 21 21 21 21 22 21 19 16 15 16 21 30 40 50 60 65 65 66 66 68 71 74 77 81 83 83 81 82 83 84 86 90
20 21 21 21 21 22 21 20 19 18 19 18 18 18 18 19 21 21 21 23 23 23 23 23 23 23 22 20 17 16 17 23 32 41 51 60 65 66 65 66 67 69 72 75 80 83 82 80 80 81 82 84
22 23 22 21 21 22 22 20 19 19 19 19 18 18 18 20 23 24 24 24 25 25 25 24 24 25 24 23 21 18 17 19 26 34 42 51 60 65 66 65 65 67 68 70 73 78 82 82 79 79 79 79
25 25 23 22 22 22 22 22 21 20 20 20 19 18 18 19 22 25 26 26 26 26 25 25 25 26 26 25 24 22 19 18 21 28 35 43 50 58 64 65 64 65 66 66 68 70 76 81 81 80 79 77
27 27 25 24 23 22 23 23 22 21 21 21 20 19 18 19 20 23 26 27 28 28 27 26 26 27 27 26 26 25 22 20 20 22 28 35 42 49 56 61 63 63 65 65 65 65 68 73 79 81 80 79
29 29 28 26 24 23 23 23 23 22 21 21 21 19 18 18 19 21 24 26 28 29 28 28 27 28 28 27 27 27 26 23 21 20 22 27 35 41 47 54 58 59 61 64 64 63 63 66 71 76 79 80
31 32 31 28 25 24 24 24 24 23 22 22 21 20 18 17 18 20 22 24 27 28 28 28 28 28 28 27 27 28 28 26 24 22 21 22 26 33 40 46 51 53 54 58 62 62 61 62 64 69 74 78
33 34 34 31 27 25 25 25 26 25 24 23 22 22 19 17 18 19 21 23 24 26 27 27 27 29 29 29 29 29 29 28 27 25 22 21 20 23 30 37 43 46 47 50 55 58 59 59 61 64 67 71
34 35 36 34 30 27 26 26 27 27 26 25 23 23 20 18 17 19 20 22 24 25 26 27 27 28 29 30 30 30 30 29 29 27 24 21 18 17 21 27 34 40 42 43 47 52 54 56 58 61 64 67
35 37 38 37 34 29 27 27 28 28 28 26 25 23 22 19 18 19 20 22 23 24 25 26 27 28 29 31 31 30 30 29 27 26 24 21 18 16 16 19 25 33 37 40 43 46 48 51 54 59 62 65
37 38 39 40 38 33 29 29 29 30 29 28 26 24 23 21 19 19 20 21 23 24 25 26 27 28 29 31 31 30 29 28 26 25 24 23 21 19 17 17 19 25 32 38 41 42 44 48 52 55 59 62
39 39 40 42 41 37 32 30 30 31 31 30 28 25 24 22 20 19 19 20 22 24 25 26 27 28 29 31 31 30 29 27 26 25 24 23 23 21 20 20 19 20 25 32 38 42 45 47 47 49 56 59
42 40 41 43 44 41 36 31 31 32 32 31 29 27 25 23 21 20 20 20 21 23 24 25 26 27 28 29 30 30 29 29 28 28 27 26 25 25 23 22 21 21 22 26 32 39 45 47 48 51 56 56
45 43 42 44 46 45 39 34 32 32 33 32 31 29 26 25 23 21 21 21 21 23 24 25 26 26 27 28 29 30 30 31 31 30 30 29 28 28 27 26 24 23 24 25 28 35 43 49 53 55 53 51
48 45 43 44 47 48 44 38 34 33 34 34 32 30 28 27 25 23 22 21 22 23 24 25 26 27 28 29 30 31 31 32 32 32 32 32 31 30 30 29 28 26 27 27 27 31 38 46 52 55 55 54

ECMWFFLT2_prec_cthk_051.txt.gz
RH
6 5 6 6 6 5 5 5 6 6 5 6 6 6 6 6 6 6 7 7 6 7 6 7 6 8 21 41 61 75 84 87 89 92 93 91 88 88 90 90 88 88 87 88 93 96 93 88 92 98 100 98
6 6 6 7 7 6 6 6 6 6 6 6 6 6 6 6 6 6 6 6 6 6 6 6 6 5 11 25 41 56 71 82 86 89 93 95 94 94 93 94 93 92 90 90 94 98 98 92 89 93 100 99
7 7 8 8 8 8 8 8 7 7 7 7 7 6 7 6 6 6 6 6 6 6 6 6 6 5 5 13 27 43 56 69 78 83 88 91 93 95 94 95 97 96 94 93 95 97 99 99 93 91 97 100
8 8 9 9 9 9 9 9 9 9 9 8 8 8 7 7 7 7 7 6 6 6 6 6 6 6 5 5 14 31 47 58 68 76 80 85 89 91 92 93 96 97 97 97 97 97 97 99 98 93 94 97
8 9 9 10 9 9 10 10 10 10 10 10 9 9 9 9 9 8 8 7 7 7 6 7 6 6 6 5 5 18 39 51 59 68 73 79 84 87 90 92 93 96 97 98 98 97 96 96 97 97 95 94
8 9 10 10 10 10 10 11 11 11 11 11 11 11 11 11 11 10 9 9 8 8 8 7 7 7 6 6 4 7 26 42 51 60 67 73 79 83 87 90 91 94 96 97 97 96 96 95 95 97 97 95
9 10 11 11 10 11 11 11 12 12 12 12 12 11 12 12 12 12 11 10 10 9 9 9 8 8 7 6 6 4 14 32 42 51 60 67 74 80 83 86 89 92 95 97 97 96 96 95 95 96 97 97
9 10 11 11 11 12 12 12 13 13 13 13 13 12 12 13 13 13 12 12 11 10 10 11 10 9 9 7 7 6 8 22 35 42 52 62 70 76 80 82 85 89 93 95 96 97 97 95 95 96 97 97
10 12 12 12 12 13 13 14 14 14 14 14 14 13 13 13 13 14 14 13 12 12 11 12 12 11 10 9 7 7 7 14 28 37 45 56 65 71 77 80 82 86 90 93 94 96 97 96 95 95 95 96
11 12 13 13 13 14 14 15 15 15 15 15 15 14 14 14 14 14 15 14 13 12 13 13 13 12 12 11 9 8 8 9 18 30 39 48 59 68 73 77 80 83 87 90 93 94 96 97 96 95 94 95
12 13 13 14 14 15 16 16 16 16 16 16 15 15 15 15 15 16 15 15 14 13 13 14 14 14 13 12 11 9 9 10 12 21 32 38 49 63 69 73 78 81 84 87 91 92 95 96 96 96 95 95
14 14 15 15 15 16 17 17 17 17 17 17 17 17 16 16 15 16 16 15 15 15 15 15 16 16 15 14 13 11 9 11 12 15 26 33 40 54 64 69 74 79 82 85 88 90 92 95 96 96 97 96
16 16 16 16 17 17 18 18 18 18 19 19 19 18 17 17 16 16 16 16 16 16 15 16 17 17 17 16 15 14 11 12 14 14 20 30 36 45 56 63 68 74 79 82 85 88 90 93 95 96 96 97
19 18 18 18 18 18 18 19 20 20 20 20 20 20 19 18 17 17 16 17 17 17 16 17 18 19 18 18 16 15 14 13 15 16 17 26 35 41 48 56 63 68 74 79 82 85 88 90 93 95 95 96
21 20 20 20 19 19 19 20 21 21 22 22 22 21 21 19 18 18 17 18 19 18 18 18 20 20 19 19 19 17 16 16 17 18 17 21 31 39 45 51 57 63 68 73 77 82 86 88 91 94 95 95
23 22 22 22 21 20 20 21 22 22 23 23 23 23 22 21 20 18 18 18 20 20 20 21 21 21 21 20 20 19 18 17 18 20 19 19 24 34 42 48 54 58 63 67 72 77 82 86 88 91 94 95
26 25 25 24 23 21 21 22 23 24 25 25 25 24 23 22 21 19 19 19 20 22 22 22 23 23 22 21 21 20 19 19 19 21 21 19 20 26 36 45 51 55 59 63 67 71 77 82 85 88 91 93
29 28 28 28 26 23 22 23 24 25 26 27 26 26 25 24 23 21 20 20 20 22 23 24 24 24 23 23 22 22 21 20 20 22 22 20 19 21 27 38 48 53 56 59 62 66 71 76 81 85 88 91
31 30 30 30 29 26 24 24 25 27 28 28 28 27 26 25 24 23 21 20 21 21 23 24 25 25 24 24 23 23 23 22 21 22 23 21 20 19 21 28 40 50 54 56 59 62 65 70 74 80 85 88
32 32 32 32 32 29 26 26 27 28 29 30 30 28 27 26 25 24 22 21 21 22 22 23 25 25 25 25 24 24 24 24 23 24 24 23 20 19 19 21 30 44 51 52 55 58 61 65 68 73 80 85
33 33 33 34 34 32 29 28 28 30 31 32 32 30 29 27 26 25 24 22 22 23 22 22 23 25 25 26 26 25 25 25 24 25 26 24 21 20 20 20 23 34 45 49 51 55 57 61 64 67 73 80
33 33 34 35 36 35 32 31 30 31 33 34 34 32 30 29 27 26 25 23 23 23 23 22 21 22 24 25 25 26 26 26 26 26 27 26 23 21 20 20 19 24 36 45 48 51 54 57 60 63 67 73
34 34 35 37 38 37 36 34 33 32 34 36 36 34 32 30 28 27 26 25 24 24 23 22 21 21 22 23 24 24 25 26 26 26 27 27 25 23 21 20 18 18 25 35 43 48 51 53 56 60 63 67
34 34 35 37 40 40 38 36 34 33 35 37 38 36 34 32 30 28 28 26 25 25 24 23 22 21 20 22 22 23 23 24 25 26 26 26 26 25 23 20 18 18 20 25 34 41 46 50 53 56 59 62
34 34 34 37 40 40 40 38 36 35 36 38 40 38 36 34 32 30 29 28 27 26 25 24 23 21 20 21 21 22 22 22 23 24 25 25 25 24 23 21 20 20 19 21 26 32 39 45 49 53 56 58
34 33 33 35 38 40 41 40 38 36 37 39 41 40 38 36 35 32 30 30 28 27 26 25 23 22 20 20 21 21 22 22 22 23 24 24 23 22 21 22 22 21 21 20 22 26 31 37 44 51 56 59
33 32 32 33 36 40 41 41 40 38 38 39 41 41 40 39 38 35 32 31 29 28 27 26 24 23 21 20 20 21 21 21 22 22 23 23 22 21 21 21 23 23 22 21 22 25 28 33 38 43 49 55
33 32 32 33 35 39 42 42 42 40 39 41 41 42 42 42 41 38 34 32 31 29 29 27 25 23 21 20 19 20 21 21 21 22 22 23 23 23 22 22 23 24 24 23 23 25 29 31 33 38 46 49
33 33 32 33 35 39 42 43 44 42 42 43 41 41 43 44 44 41 37 34 32 31 31 29 27 25 23 20 20 20 21 22 22 23 23 24 24 25 25 24 24 24 25 25 24 26 29 32 34 39 46 47
35 34 34 33 35 39 42 44 45 45 46 45 42 41 43 46 47 45 40 35 34 33 33 32 29 27 25 22 21 21 22 23 24 24 25 26 26 27 27 27 26 25 26 26 26 26 27 32 36 38 41 44
37 36 36 35 36 39 43 46 47 48 51 50 44 42 43 47 50 49 44 38 36 35 35 34 32 29 27 25 23 22 23 24 25 26 27 28 28 29 29 29 28 27 27 27 27 27 27 28 30 32 35 40

ECMWFFLT2_prec_cthk_057.txt.gz
RH
13 12 11 11 10 9 10 11 12 12 12 12 11 11 11 11 11 10 10 9 8 7 7 7 7 6 7 7 8 10 8 6 6 5 5 4 4 4 4 4 3 5 8 14 20 20 21 22 26 32 36 34
15 15 14 13 11 10 10 11 12 12 13 13 13 12 12 12 11 11 10 9 9 8 8 8 7 7 7 7 8 8 7 7 7 6 7 6 5 5 4 4 4 4 4 8 16 23 24 25 28 31 34 36
17 17 16 15 13 12 11 11 12 13 14 14 14 14 13 13 12 11 10 10 10 9 8 8 7 7 7 8 8 7 8 7 7 7 7 7 7 6 6 5 4 5 4 3 7 15 22 27 30 30 32 36
19 19 18 17 15 14 14 13 12 12 14 14 15 15 14 14 13 12 12 11 11 10 10 9 8 8 8 9 8 8 8 8 7 8 8 8 8 7 7 6 6 5 5 4 3 5 11 20 29 32 31 35
20 20 19 18 17 17 16 16 15 13 14 14 15 15 15 15 14 14 13 13 12 12 11 10 9 9 9 9 9 9 8 8 8 8 8 8 8 8 8 7 7 6 5 5 4 3 4 8 19 31 33 35
21 21 20 20 20 19 19 19 18 16 15 14 15 16 16 16 16 15 14 14 13 12 11 10 10 9 9 9 9 8 8 9 8 8 8 9 9 9 9 8 8 7 6 5 5 4 4 3 8 22 34 38
22 22 22 22 22 22 21 21 20 19 17 15 15 15 16 17 17 17 16 15 14 13 12 11 11 10 10 10 9 9 9 9 9 9 8 8 8 9 9 9 8 7 7 6 5 5 4 5 3 9 23 37
23 23 23 24 24 24 22 22 21 20 18 16 14 14 16 17 18 18 18 17 16 14 13 12 13 12 12 11 11 11 10 10 10 10 10 10 9 9 10 9 9 8 8 6 6 6 5 5 5 5 10 23
24 24 24 24 24 23 22 21 20 20 19 17 14 14 15 17 18 19 20 19 17 15 14 13 13 14 14 14 13 12 12 12 12 11 11 12 12 10 10 10 10 9 8 8 6 6 6 5 5 5 6 11
24 24 23 23 22 22 21 20 19 19 19 18 16 14 15 16 19 20 21 20 18 17 15 15 15 15 16 15 14 13 13 13 12 12 11 13 13 12 11 11 10 10 9 8 8 7 7 6 5 5 5 8
22 22 22 22 21 21 21 20 20 19 19 18 17 16 15 16 19 21 21 21 19 18 17 16 16 16 16 15 15 14 14 13 12 12 12 13 13 13 12 12 11 11 11 10 9 9 7 7 6 6 5 6
21 20 20 21 21 20 20 20 20 20 19 19 19 17 16 17 19 20 21 21 20 19 18 18 17 17 17 15 15 15 14 13 13 13 13 13 13 14 14 14 13 14 14 13 12 11 10 8 7 6 6 5
20 20 19 19 18 18 19 19 20 20 20 21 21 21 19 18 19 20 21 21 21 20 19 18 17 17 16 16 16 15 14 14 14 14 14 14 14 15 15 15 15 16 16 16 16 15 12 10 9 7 6 6
19 18 18 17 17 18 18 19 21 22 23 24 24 24 22 19 19 19 20 21 21 21 20 18 18 17 17 17 16 16 15 14 15 14 14 14 14 14 15 15 15 16 17 19 20 20 17 12 10 9 7 7
17 17 17 18 18 19 20 22 24 26 26 27 27 26 24 21 18 18 19 20 21 21 20 19 18 18 18 17 16 16 16 15 14 14 13 13 14 15 16 16 16 17 19 21 22 23 21 16 11 10 8 8
17 18 19 20 21 23 24 26 27 28 29 28 28 27 26 23 19 18 19 19 20 21 20 19 19 18 18 17 16 15 16 16 14 14 14 14 16 17 18 19 20 20 21 24 26 25 23 19 13 11 10 8
20 21 23 24 26 26 27 28 28 29 29 29 28 27 26 23 19 17 18 19 20 21 21 21 20 20 18 18 17 16 16 16 16 16 17 17 18 20 22 23 23 23 24 27 28 27 24 21 15 12 11 8
26 27 28 29 29 29 28 28 29 29 29 29 28 26 25 23 20 17 17 19 20 21 22 22 21 21 20 19 19 17 17 17 18 18 18 18 18 21 24 25 25 26 27 30 31 28 26 22 17 12 10 8
33 33 32 32 31 30 30 29 29 28 28 27 27 26 25 24 22 19 18 20 22 22 23 23 23 22 21 21 20 18 17 18 18 19 18 18 19 22 24 24 26 28 29 31 31 30 28 23 17 12 11 9
35 35 35 34 33 32 31 30 29 27 26 26 26 26 26 25 24 21 19 21 22 23 24 25 24 24 23 23 21 19 18 18 19 19 19 19 20 21 23 25 26 28 30 32 33 31 29 22 16 13 10 10
34 34 34 34 34 33 32 31 29 28 27 26 26 27 28 28 26 23 21 22 23 25 25 26 26 25 25 24 22 20 19 19 19 20 20 20 20 21 24 27 26 28 31 32 33 30 25 20 16 14 11 11
33 33 33 33 34 34 33 32 32 31 30 29 29 30 31 30 29 27 24 23 24 26 27 28 28 27 27 26 24 22 20 20 20 20 20 19 19 20 24 27 25 27 30 33 33 27 21 19 17 15 13 12
35 35 34 33 33 33 33 33 34 34 34 34 34 33 34 34 32 30 27 25 26 27 29 29 30 30 29 28 26 23 22 21 21 21 20 20 20 20 22 25 23 24 30 35 32 24 22 22 18 16 14 14
38 38 36 34 33 33 33 34 34 35 36 37 37 37 37 36 35 33 30 27 28 29 31 32 32 32 32 31 29 26 24 22 23 22 22 21 20 20 22 24 22 26 34 35 29 25 26 25 20 18 17 15
40 40 38 36 34 34 34 34 35 36 37 38 38 39 38 38 37 36 33 30 29 31 33 35 36 35 34 34 32 28 26 24 24 23 21 21 20 20 23 23 24 30 34 32 30 30 30 27 23 23 21 19
40 40 38 36 36 36 37 36 36 36 38 38 38 38 38 38 37 36 34 32 31 32 35 37 39 39 38 37 36 32 29 26 25 24 22 21 21 21 24 24 25 31 33 33 33 33 31 28 25 25 25 24
38 38 37 37 38 39 39 39 39 38 38 37 37 38 37 37 37 37 35 33 31 31 35 39 42 42 41 40 40 36 32 29 27 25 23 23 22 24 26 26 27 32 34 34 34 33 33 30 26 24 23 26
38 37 37 38 39 40 41 40 40 39 37 36 35 36 37 37 38 38 37 35 33 32 34 40 45 46 45 44 43 41 36 31 28 27 24 25 25 26 28 28 30 35 36 34 34 35 35 32 28 25 23 24
38 37 38 39 41 42 42 41 40 39 37 35 34 35 37 37 38 39 39 38 36 34 35 39 45 50 50 48 47 44 39 33 30 28 26 26 27 29 30 29 31 36 37 36 36 37 37 34 31 28 26 24
39 38 38 39 40 42 43 42 40 39 37 37 35 35 37 38 39 40 40 40 39 37 37 40 44 49 53 53 51 48 43 36 31 30 29 28 30 32 33 31 33 36 37 38 38 37 37 35 33 32 28 24
39 40 40 40 40 41 42 44 42 41 39 38 37 37 38 39 40 41 41 42 41 39 39 42 46 50 54 56 55 51 47 39 33 32 31 31 32 34 35 33 35 38 38 39 39 39 38 37 37 35 30 25

ECMWFFLT2_prec_cthk_063.txt.gz
RH
15 15 15 15 15 15 15 15 15 15 16 16 16 15 15 14 13 12 11 10 10 10 10 10 9 9 8 9 9 9 9 9 9 9 9 8 8 8 8 8 8 7 7 6 6 6 5 5 4 4 4 4
16 16 16 16 16 16 16 16 16 17 17 18 18 17 17 16 15 14 12 11 10 9 9 9 9 9 9 9 9 9 10 10 10 10 10 9 9 9 9 8 8 8 8 7 6 6 5 5 5 5 5 4
16 17 17 17 17 17 17 16 17 17 18 18 18 18 17 17 16 15 14 13 11 10 9 9 9 10 10 9 10 10 10 10 10 10 10 10 9 9 9 9 9 8 8 8 7 7 6 6 5 5 5 5
17 17 17 16 16 16 15 16 16 16 17 17 17 17 17 17 16 16 15 14 13 11 10 9 9 9 10 10 10 10 10 10 10 10 10 10 10 10 9 9 9 9 8 8 8 7 7 6 6 6 6 6
17 16 16 15 15 15 15 16 16 17 17 17 17 17 17 17 16 16 16 16 15 14 13 11 10 10 10 11 11 11 11 10 11 10 11 11 11 11 10 10 9 9 9 8 8 7 7 6 6 6 6 6
16 15 15 14 15 15 15 16 16 16 17 17 17 17 16 16 16 16 16 16 16 16 15 14 12 11 10 11 11 11 11 11 11 10 11 11 11 11 11 10 10 10 9 8 8 7 7 7 7 7 7 6
15 14 14 14 15 15 16 16 16 16 17 16 17 17 17 16 16 16 17 16 17 17 16 16 14 13 12 11 11 12 12 12 11 11 11 11 11 11 11 11 11 10 9 8 8 8 7 7 7 7 7 7
14 15 15 15 16 17 17 17 17 18 17 18 18 18 18 18 18 18 17 17 17 18 17 17 16 15 13 12 12 12 12 13 13 12 12 11 11 11 11 11 10 10 9 8 8 8 8 8 7 7 7 7
16 17 17 18 18 18 18 18 18 17 17 17 16 17 17 18 18 19 19 19 19 19 19 19 18 17 15 14 13 13 13 13 14 13 13 12 12 11 11 10 10 9 8 8 8 8 8 8 8 8 7 7
19 19 19 19 19 19 19 18 18 17 17 16 15 15 15 15 16 17 18 19 20 21 21 21 21 20 19 17 15 14 13 14 14 14 14 13 12 11 11 10 9 8 8 8 8 8 8 8 9 8 8 8
20 20 20 20 19 19 19 19 19 19 19 18 18 17 17 18 18 18 18 19 20 20 21 22 22 22 22 20 18 16 14 14 14 15 14 13 12 11 10 10 9 9 9 8 8 8 9 9 9 9 9 9
20 20 20 20 20 20 20 21 21 21 22 23 23 23 22 22 21 21 20 20 20 20 20 20 21 22 22 22 20 19 17 15 15 15 15 14 12 11 10 10 10 10 10 9 10 9 9 9 9 10 10 10
20 20 21 21 21 22 22 22 23 23 25 25 26 26 25 24 23 22 21 21 20 19 19 19 19 20 20 21 21 20 19 16 15 14 14 14 13 12 11 11 11 11 11 11 11 10 10 10 10 10 10 10
22 22 23 23 23 24 24 24 25 26 26 26 26 26 25 24 23 22 21 21 21 20 20 19 18 19 19 19 19 19 19 17 15 14 14 14 14 13 12 12 12 12 12 12 12 12 11 12 12 11 11 11
25 25 25 25 26 26 26 27 27 28 27 27 26 26 25 24 23 22 22 22 22 22 22 21 20 20 19 20 19 19 19 18 16 15 15 15 14 14 13 13 13 13 13 13 13 13 13 13 13 12 12 12
26 26 26 27 27 28 29 29 29 29 29 28 28 27 26 25 24 23 24 24 25 25 25 25 24 24 23 22 22 21 20 20 19 18 17 16 16 16 15 14 14 14 14 14 14 14 14 14 14 14 13 13
26 27 27 28 29 30 31 31 31 30 30 29 29 28 27 26 25 24 25 26 26 27 28 28 27 27 26 26 26 25 24 23 23 21 20 18 17 17 17 17 16 16 16 16 16 15 15 15 15 15 14 15
28 29 30 31 32 32 32 32 31 31 31 30 30 28 27 26 26 25 26 27 27 28 29 29 29 29 28 27 27 27 27 26 25 23 22 20 18 18 19 19 19 18 18 17 17 17 16 16 16 16 15 16
31 32 33 34 34 34 33 32 32 31 31 30 29 28 27 27 27 27 27 27 27 27 28 30 31 30 29 28 27 28 28 27 26 25 24 22 20 19 20 20 20 20 19 19 19 19 18 18 17 17 17 17
33 34 35 35 34 34 33 32 31 30 29 29 28 28 28 28 28 28 27 27 26 27 27 28 30 31 31 30 28 28 28 28 28 27 26 25 23 22 22 21 21 22 22 21 21 21 20 20 19 19 18 18
34 35 36 35 34 33 32 31 29 29 29 29 29 29 29 28 28 27 27 26 26 26 27 28 29 31 32 31 30 29 29 29 29 28 28 29 28 27 26 25 24 24 24 24 24 24 23 22 21 21 20 19
35 36 36 35 34 32 31 29 29 29 30 30 29 29 28 28 27 27 26 26 26 26 27 27 28 30 31 31 31 30 30 30 31 29 29 31 32 31 30 30 28 27 26 26 26 26 26 25 23 23 22 21
36 37 37 36 34 32 31 31 32 32 31 29 29 29 29 29 29 29 28 27 27 27 26 26 27 27 29 30 30 31 30 31 31 30 29 30 32 33 32 33 32 30 28 27 27 28 29 28 26 25 24 23
36 37 36 35 33 32 33 33 32 30 29 30 30 30 30 29 29 28 27 26 26 25 25 25 25 25 27 28 29 30 30 31 32 30 28 28 30 32 32 33 34 33 31 28 27 28 29 30 28 26 25 25
35 34 34 32 30 31 30 29 28 27 28 30 30 29 28 26 25 24 24 23 23 23 23 23 24 25 25 26 27 29 31 32 33 32 29 27 29 30 31 32 33 34 33 31 29 28 28 29 29 28 27 26
33 31 29 28 27 27 26 25 26 28 28 28 28 27 25 24 23 23 23 22 21 21 21 21 22 23 24 25 26 27 29 32 33 34 32 29 28 29 30 31 32 33 34 34 31 29 28 28 28 29 28 28
31 30 30 29 27 26 26 26 27 27 26 26 26 25 24 24 23 23 22 21 20 20 19 20 20 21 22 23 24 25 26 28 30 34 35 32 30 29 30 30 31 33 34 35 34 32 31 29 29 30 29 28
33 33 32 32 30 30 30 29 28 26 25 25 24 24 24 23 22 22 21 21 20 20 19 19 19 19 19 20 21 22 22 24 26 30 33 34 34 32 32 31 31 32 34 35 36 34 33 33 33 32 31 31
37 36 36 36 34 33 31 29 29 27 27 25 24 24 23 22 21 21 21 21 21 20 20 20 19 19 18 19 19 19 20 20 22 25 29 34 37 35 34 33 33 33 33 35 37 36 35 36 37 34 34 34
37 37 37 37 35 33 31 29 28 27 27 26 25 24 23 22 21 20 21 21 22 22 21 21 20 20 20 20 20 19 19 19 19 20 23 29 35 37 37 37 36 34 34 36 37 38 40 41 41 37 36 38
34 34 34 34 34 32 31 29 27 26 26 25 25 24 24 24 23 22 22 22 23 22 22 22 21 21 21 21 21 21 21 20 20 19 19 22 27 34 38 39 39 36 37 40 39 40 44 46 47 43 40 41

ECMWFFLT2_prec_cthk_066.txt.gz
RH
15 16 16 16 16 17 17 16 16 16 16 16 16 16 16 16 17 17 17 17 17 16 15 14 12 11 10 10 10 9 9 8 8 8 8 8 8 9 8 8 8 7 7 7 7 6 7 6 6 6 5 5
16 16 17 17 17 17 16 16 15 15 15 14 14 14 15 15 16 16 17 17 17 17 16 15 14 13 12 11 10 9 9 9 8 8 8 9 9 9 9 9 9 9 8 8 7 7 7 7 7 6 6 6
17 18 18 17 16 16 15 15 14 14 14 14 14 14 15 15 16 16 17 17 17 17 17 17 16 15 14 13 12 11 10 10 9 9 9 9 9 10 10 10 9 9 9 9 8 8 7 7 7 7 7 6
18 18 17 16 15 15 15 15 14 15 15 15 16 16 16 17 17 17 18 18 18 18 18 18 18 17 16 16 15 14 12 11 11 10 10 10 10 10 10 10 10 10 9 9 9 9 9 8 8 7 7 7
18 17 16 15 15 15 16 16 16 17 17 17 17 17 17 18 18 18 19 19 19 19 19 19 19 19 18 18 17 16 14 13 12 12 12 11 11 11 11 11 10 10 10 10 10 10 9 9 9 8 8 7
17 16 16 16 17 18 18 18 18 18 19 18 18 18 17 17 17 17 17 17 17 18 19 19 20 20 20 20 19 18 17 15 14 13 13 12 12 12 12 11 11 11 10 10 10 10 10 10 9 9 8 8
16 17 17 18 19 19 19 19 19 19 19 19 19 18 18 18 17 17 16 15 15 15 15 16 17 18 19 20 20 20 20 18 17 15 14 13 13 13 13 12 12 12 11 11 11 11 10 10 9 9 8 8
17 18 19 20 20 20 20 20 20 20 20 20 20 20 20 19 19 19 18 17 16 15 14 14 14 14 15 16 17 18 20 20 19 18 17 15 14 14 14 13 13 13 12 12 11 11 10 9 9 9 8 8
19 20 21 21 21 22 22 22 22 21 21 21 21 21 21 21 21 21 21 21 20 20 18 17 16 15 15 15 15 15 17 18 18 19 18 17 16 15 14 14 14 14 13 12 11 11 10 9 9 9 8 8
22 22 22 22 22 22 22 22 22 23 23 23 23 23 23 23 23 23 23 24 24 24 23 22 21 20 18 17 16 16 16 16 17 17 18 17 16 15 14 14 14 13 13 12 11 10 9 9 9 9 8 8
23 23 23 23 23 23 22 23 24 24 25 25 25 25 25 24 25 25 25 25 26 26 26 26 25 23 22 20 19 18 17 17 17 17 17 17 16 14 13 12 12 12 12 11 10 10 10 9 9 9 9 8
23 24 24 24 24 24 25 25 26 27 27 28 27 27 26 26 25 26 26 27 27 27 27 27 26 25 24 23 21 20 19 19 18 18 18 18 18 16 14 12 11 11 11 11 11 11 10 10 9 9 9 8
24 25 26 26 26 26 26 27 28 29 30 29 28 27 27 27 27 27 28 28 28 27 27 26 25 24 24 23 22 21 20 20 19 19 18 18 18 17 15 14 12 12 12 12 11 11 10 10 9 9 8 8
26 27 27 27 27 27 28 29 30 30 31 30 29 28 28 28 28 28 28 28 28 26 25 24 23 22 22 22 21 22 21 20 20 19 18 17 17 17 16 15 13 12 12 11 11 10 10 9 9 9 8 8
29 29 28 28 27 28 30 31 31 32 32 31 30 30 29 29 29 29 28 27 26 25 24 23 22 21 21 22 22 22 22 21 21 21 20 18 17 17 17 17 15 13 13 12 12 11 10 10 9 9 9 9
30 29 28 28 29 31 32 33 33 33 33 33 32 31 31 30 29 28 27 26 25 24 24 24 23 23 23 23 23 22 23 22 22 21 21 20 18 18 18 18 17 16 15 15 14 13 12 11 10 10 10 10
30 30 30 31 32 33 34 34 34 34 34 34 33 33 32 31 29 28 26 26 26 26 26 26 26 25 25 24 24 23 23 23 23 22 21 21 19 19 18 18 19 18 17 17 16 15 14 13 13 12 11 11
32 32 33 34 35 35 35 35 35 35 34 34 34 33 32 30 28 27 27 27 28 28 28 28 27 26 25 24 24 23 23 23 22 21 21 20 19 19 19 18 18 18 19 19 18 17 16 15 15 13 13 12
34 35 35 36 37 37 37 36 35 35 35 34 34 32 31 29 27 27 28 28 28 27 27 27 26 26 25 25 24 23 23 22 22 21 21 21 20 20 19 18 18 19 20 20 20 18 18 17 16 15 14 14
36 36 37 38 39 39 38 38 36 36 36 35 33 31 29 27 27 28 28 27 26 25 24 24 24 25 25 25 24 23 23 22 22 21 21 21 21 20 20 18 18 18 19 21 21 20 19 19 19 18 18 16
38 38 39 40 41 40 40 39 38 37 35 33 31 28 26 26 27 26 25 23 22 22 22 22 22 23 24 24 24 23 23 22 22 21 20 20 20 20 19 18 16 16 17 18 19 20 20 20 20 19 20 20
42 41 41 41 41 40 40 39 37 35 33 30 28 26 26 26 24 22 20 20 21 22 22 23 23 23 24 23 23 23 23 23 22 21 20 19 19 19 17 17 16 14 14 15 15 17 18 19 19 19 21 21
43 42 41 39 38 37 35 34 33 30 27 26 25 25 24 22 20 19 20 21 22 23 24 24 23 23 23 23 23 22 22 22 22 21 20 19 18 18 17 16 15 13 12 12 13 14 16 17 17 18 19 20
43 42 40 38 35 34 32 30 28 26 25 25 24 22 19 18 19 21 23 24 24 24 24 23 24 24 24 23 23 22 22 22 22 21 21 19 18 18 17 16 14 12 11 11 12 13 14 14 16 17 18 19
42 41 40 38 35 33 29 27 27 26 25 23 21 20 22 24 26 27 27 28 26 24 23 22 23 24 24 24 23 23 22 22 22 22 21 20 20 18 17 16 15 13 12 12 12 12 13 13 15 17 16 17
43 42 40 38 36 33 29 28 28 26 24 23 23 25 28 30 30 30 29 29 28 26 24 22 22 23 24 24 23 23 22 22 22 22 22 21 21 20 19 17 17 15 14 13 13 13 13 13 16 18 18 19
44 43 40 38 36 33 31 32 32 30 29 30 30 30 30 30 30 29 29 29 29 28 26 24 23 22 22 23 23 23 23 22 22 22 22 22 22 22 22 20 19 18 16 15 14 15 16 15 16 17 20 22
43 42 40 38 37 37 39 38 36 35 35 35 33 31 29 27 28 28 29 29 29 29 29 27 25 23 22 22 22 23 23 23 23 23 23 24 24 23 23 23 22 20 19 18 17 17 18 18 18 17 18 22
43 42 42 43 45 45 42 39 37 37 36 35 33 32 30 29 28 29 30 30 30 29 29 28 27 26 25 23 23 23 23 23 24 24 24 25 25 24 24 24 23 22 21 20 19 19 19 19 19 18 18 20
47 47 47 46 46 43 40 37 36 35 35 34 33 33 32 31 30 31 31 31 31 30 29 29 29 28 27 26 26 26 25 25 25 25 25 26 26 26 26 25 24 23 23 23 21 20 19 19 19 18 19 22
46 43 40 37 35 36 37 37 36 35 34 34 34 33 32 32 31 31 32 32 31 31 30 30 30 30 29 28 28 28 28 28 27 27 26 27 27 27 27 27 25 25 25 25 24 22 21 20 20 19 20 23

ECMWFFLT2_prec_cthk_069.txt.gz
RH
15 15 16 16 16 17 17 17 17 17 16 16 15 15 15 14 14 14 14 14 14 14 14 15 15 16 16 15 14 13 12 11 10 11 11 9 8 8 8 7 7 7 7 7 7 7 7 7 7 6 7 6
16 17 17 17 17 18 18 17 16 16 15 15 15 15 14 14 14 14 14 14 14 15 15 15 16 16 17 17 17 16 15 13 12 12 12 10 9 9 8 8 8 7 7 7 7 7 8 8 8 7 7 7
17 18 18 18 18 17 17 16 16 15 15 15 16 16 16 16 16 16 16 16 16 16 16 17 17 17 18 19 19 19 18 17 15 14 12 11 11 10 10 9 9 8 8 8 7 8 8 8 8 8 8 7
19 19 19 18 17 16 16 16 16 17 17 18 17 18 18 18 17 18 18 18 18 18 17 17 17 17 18 19 20 20 20 20 19 17 16 14 13 12 12 12 11 10 9 9 8 8 8 9 9 9 8 8
20 20 19 18 17 17 17 18 19 19 19 19 19 19 19 18 18 18 19 19 19 19 18 18 17 16 16 16 17 18 19 20 21 21 20 18 16 15 14 14 13 12 11 11 10 9 9 9 9 9 9 9
21 20 18 17 18 19 19 20 20 20 20 20 20 20 20 20 20 20 20 20 19 20 20 20 19 19 18 16 15 15 15 16 18 20 21 21 20 19 17 16 15 14 13 12 11 11 11 10 10 10 9 9
21 19 18 18 20 21 21 21 21 21 22 22 22 22 22 22 21 22 21 21 21 21 21 21 21 21 21 20 19 17 16 15 15 15 17 18 19 20 19 18 17 16 15 14 13 13 12 12 11 10 10 10
20 19 19 20 21 22 22 22 23 23 23 23 23 23 23 23 23 23 23 23 22 22 22 22 22 22 23 23 23 22 21 19 18 16 15 15 16 17 18 18 17 16 16 15 15 14 13 12 12 11 10 10
19 19 21 22 23 23 23 24 24 23 23 23 24 24 25 26 26 26 26 25 24 24 23 23 23 23 24 24 25 25 24 23 22 20 19 18 17 17 17 17 17 16 16 15 14 13 13 12 12 11 11 10
20 21 22 23 24 24 24 24 24 23 23 24 26 27 28 29 29 29 29 28 28 27 26 26 25 25 25 24 24 25 25 24 23 22 21 20 19 18 18 18 19 18 18 16 15 13 12 12 12 11 10 10
21 22 24 24 25 25 25 24 24 23 24 27 29 30 31 31 31 31 31 31 30 30 29 28 27 26 25 24 24 24 25 24 23 22 22 21 21 20 19 19 19 19 19 19 18 16 14 13 12 11 11 10
23 25 25 26 26 26 25 25 24 25 27 29 30 31 32 32 32 32 32 32 32 31 30 28 27 25 23 23 23 23 24 24 23 23 22 22 22 22 21 20 20 19 20 20 19 18 17 15 13 12 11 10
26 27 28 27 27 27 26 26 26 27 29 30 31 32 33 33 33 33 33 33 32 31 30 28 27 25 23 22 21 22 23 23 23 23 23 22 22 22 22 22 22 21 21 21 21 21 20 18 15 13 12 11
28 29 29 29 28 28 27 27 28 29 31 32 33 33 34 34 34 34 34 33 33 32 31 29 27 25 23 23 23 23 23 23 23 23 23 23 22 22 22 22 22 21 21 21 21 21 21 21 19 17 15 13
29 30 30 30 30 29 29 30 31 32 33 34 34 35 35 35 35 35 34 34 33 32 32 30 28 26 25 25 25 25 25 25 24 24 24 23 23 22 22 22 21 21 21 21 20 20 21 21 21 20 18 16
31 31 31 31 31 32 32 33 34 35 36 37 37 37 37 37 37 36 35 34 34 32 31 30 28 26 25 26 27 27 27 26 25 25 25 24 24 23 23 22 22 21 21 21 20 20 20 20 21 21 20 19
31 32 32 32 33 35 36 37 37 38 39 40 40 40 39 39 38 37 37 35 33 31 29 27 25 24 24 25 27 27 27 27 26 25 25 24 24 24 23 23 22 21 20 20 19 19 19 19 20 20 21 20
33 34 34 35 35 36 38 39 40 41 42 42 42 42 41 40 39 38 37 34 30 27 25 23 22 22 23 24 25 26 26 25 25 25 24 24 23 23 23 22 22 21 20 20 19 18 17 18 18 19 20 21
36 36 37 37 37 37 38 39 40 42 43 44 43 42 41 39 38 37 36 31 27 24 22 21 21 21 21 22 23 23 22 23 23 23 23 23 23 22 21 21 21 20 20 19 18 17 16 16 16 17 17 18
39 39 39 39 38 38 38 38 38 39 41 42 42 41 40 38 36 35 32 28 24 22 22 21 21 20 19 20 21 20 20 21 21 22 22 22 22 21 21 20 19 19 18 18 18 17 16 15 14 15 15 16
40 39 38 39 39 39 39 38 38 39 40 40 40 39 38 37 34 32 29 26 24 23 23 22 21 19 17 17 18 18 18 18 19 19 19 20 21 21 21 20 20 19 18 18 17 17 17 15 14 14 15 15
41 40 39 38 38 39 40 41 40 41 41 40 39 39 37 36 32 29 26 25 25 24 23 21 20 18 16 15 15 16 17 17 18 19 19 20 20 20 20 21 22 21 19 18 17 17 17 16 14 14 14 15
44 44 43 41 41 41 41 41 41 41 41 40 39 38 36 34 31 29 27 25 24 23 21 20 19 18 17 16 16 17 18 19 20 21 21 21 22 22 22 22 23 23 21 20 18 17 17 16 15 14 14 14
47 47 47 46 45 43 41 40 39 38 37 37 36 35 34 33 32 32 31 28 24 21 21 22 23 23 23 23 22 22 22 22 22 23 23 23 23 23 23 22 23 23 23 22 21 19 18 17 16 16 15 14
48 48 48 47 46 44 42 40 37 34 33 33 34 33 32 33 33 32 32 30 27 26 27 29 31 31 31 30 29 28 26 25 24 23 23 22 22 23 22 22 22 23 23 23 23 21 20 19 18 18 17 16
49 48 47 45 42 40 38 36 33 30 31 32 34 35 34 34 34 34 34 34 34 34 34 35 35 35 34 33 32 31 30 28 27 25 25 23 22 22 23 22 22 23 23 23 23 23 22 21 20 19 18 17
48 46 43 41 39 37 35 34 33 31 31 32 35 37 38 37 37 38 38 37 37 37 36 36 35 35 34 33 32 31 30 30 29 28 28 27 25 24 23 23 22 23 23 24 23 23 23 22 21 20 19 18
47 46 45 45 43 42 41 41 41 38 34 31 31 32 34 35 37 37 37 37 37 36 36 35 34 34 33 33 32 31 31 30 30 29 29 29 28 26 24 24 23 23 24 24 24 24 24 23 23 23 21 19
49 48 48 47 46 45 44 42 41 37 33 28 26 25 27 31 35 37 36 36 36 35 35 35 35 35 34 33 33 32 31 30 30 30 30 30 30 29 27 26 25 25 25 25 25 25 25 25 24 23 23 23
51 49 47 45 43 42 39 37 35 31 28 26 24 24 25 29 34 38 38 37 36 36 35 35 36 35 35 34 34 33 32 31 31 31 31 32 32 31 30 29 27 27 28 28 26 26 26 26 26 25 25 26
50 47 45 43 40 38 35 32 30 28 27 26 25 26 27 30 33 36 37 36 36 35 35 35 35 34 34 33 33 33 33 32 32 32 33 33 34 34 34 32 30 30 31 30 29 29 28 28 27 27 27 27

ECMWFFLT2_prec_cthk_072.txt.gz
RH
12 12 14 15 15 16 16 16 16 16 17 16 16 16 15 15 14 14 14 14 14 14 14 14 14 14 14 13 14 15 17 17 18 18 17 18 20 19 18 18 18 13 9 8 8 7 7 7 7 6 7 6
13 14 15 16 16 17 17 17 17 17 17 16 16 15 15 15 15 15 16 16 16 16 16 16 16 16 15 15 15 15 15 16 16 16 17 17 18 18 16 17 18 12 9 9 8 8 7 7 7 6 7 7
14 16 17 18 18 18 18 18 17 17 17 16 16 16 16 17 17 17 17 17 17 17 17 17 17 17 17 17 17 16 16 16 16 16 17 18 19 19 18 18 17 13 11 10 9 9 8 8 7 7 7 7
15 18 19 19 19 19 18 18 17 17 17 17 18 18 19 19 19 19 18 18 18 18 17 18 18 17 17 17 17 17 18 18 17 17 17 17 18 19 20 20 20 18 16 13 12 11 10 9 9 8 8 8
17 19 20 20 20 19 18 17 17 18 19 20 20 21 21 21 21 20 20 20 19 19 19 18 18 18 18 17 17 17 17 18 18 18 18 18 17 17 18 19 20 21 20 18 16 14 14 12 11 10 9 9
19 21 21 21 20 19 18 18 19 20 21 22 23 23 23 22 22 21 21 21 20 20 19 19 18 18 18 18 18 18 18 18 18 19 19 19 19 18 17 17 17 18 19 20 19 18 17 15 14 13 12 11
20 22 22 22 20 19 19 19 21 23 23 24 24 24 24 24 23 22 22 22 21 20 20 20 20 19 19 19 19 19 20 19 19 19 20 20 21 20 20 19 18 17 17 18 19 18 18 18 17 16 15 14
20 22 23 22 20 20 20 22 23 24 24 25 25 25 24 24 24 23 23 22 22 22 22 23 23 22 22 22 22 21 21 21 21 21 21 21 22 22 23 22 21 19 18 18 17 17 17 17 17 17 16 15
22 23 24 23 21 21 22 24 25 25 26 26 26 25 24 24 23 23 23 24 24 25 25 25 25 25 25 25 25 24 23 23 22 22 22 22 22 23 23 24 23 23 22 20 19 18 18 18 17 16 15 15
23 25 25 23 22 23 25 25 26 26 26 26 26 25 24 23 23 24 25 26 26 26 26 26 26 26 26 26 27 26 25 25 24 23 22 21 20 21 21 21 22 22 22 22 21 20 19 19 19 18 17 15
25 27 26 24 24 25 26 26 27 27 27 27 26 25 24 24 25 26 26 27 27 28 28 28 29 29 29 29 29 28 27 26 25 23 21 20 19 19 19 20 20 21 21 21 21 21 20 20 20 20 20 19
27 27 26 25 26 27 27 27 28 28 28 27 26 25 25 25 26 27 27 28 29 30 31 32 32 32 32 31 31 30 29 27 26 24 21 19 18 19 19 20 21 21 21 21 21 21 21 20 20 20 20 21
27 27 26 27 28 28 28 28 28 28 28 27 27 26 26 27 28 28 29 30 32 33 34 35 35 34 34 34 33 32 30 29 27 24 22 20 18 19 20 21 21 22 22 22 22 22 22 22 21 21 20 21
28 28 28 29 29 29 28 28 29 29 29 29 28 28 29 29 30 30 32 33 35 36 36 37 37 36 36 35 35 32 31 29 27 24 22 21 19 20 21 22 22 22 22 23 23 23 23 23 22 22 22 21
28 29 29 29 29 28 28 29 30 31 31 31 31 31 32 32 32 32 34 35 37 37 38 38 38 37 37 36 35 32 30 28 26 25 23 22 21 21 22 23 23 23 23 23 23 22 22 22 23 23 22 22
28 29 29 29 29 29 29 31 32 33 34 35 35 35 35 35 34 35 36 37 38 38 38 39 38 36 35 34 32 30 27 25 24 23 23 23 23 23 23 24 24 23 23 23 22 22 22 21 22 22 22 22
30 30 30 29 29 30 32 33 35 36 37 38 39 38 38 37 37 36 37 37 37 38 37 37 36 34 33 31 29 26 23 22 21 20 21 22 23 24 24 24 24 24 23 23 23 22 21 21 21 21 21 22
33 32 31 30 31 33 36 37 39 39 40 40 39 39 39 39 38 37 37 36 36 36 36 35 34 33 32 30 28 24 22 21 20 19 19 19 20 21 22 23 23 24 23 23 23 23 22 21 21 20 20 20
35 34 33 33 36 38 40 42 43 43 43 42 41 41 41 40 40 40 39 37 35 34 33 33 33 32 30 28 26 23 22 21 20 20 19 19 19 19 19 20 20 21 22 22 22 23 23 22 21 21 20 19
38 38 38 39 41 42 43 44 44 45 45 44 44 44 44 43 43 42 41 38 34 32 31 30 29 29 28 26 25 23 23 23 22 20 19 18 19 19 18 18 18 18 19 19 20 21 21 22 22 21 21 19
42 43 44 45 45 45 45 45 44 44 43 43 43 42 43 43 43 41 39 37 34 31 30 29 29 28 26 25 25 25 25 24 23 21 19 18 18 19 19 18 18 17 17 17 17 17 17 19 20 20 20 20
46 47 48 48 49 48 48 47 46 45 43 42 40 39 39 40 40 39 38 36 34 32 32 31 31 30 29 28 27 27 26 25 23 22 21 19 18 18 19 18 18 17 17 17 17 16 15 16 17 18 18 19
49 50 50 51 51 50 50 49 48 48 46 45 43 40 38 36 34 33 33 33 32 32 33 32 32 31 31 30 29 29 28 26 25 24 23 21 20 20 20 19 18 18 17 17 17 16 15 15 15 15 16 17
52 52 52 52 51 51 51 51 51 51 49 47 45 42 38 35 30 28 28 29 31 33 34 35 35 35 35 34 33 32 32 31 30 28 27 26 25 24 23 23 22 21 19 18 18 18 17 17 16 16 15 16
54 54 53 53 53 53 54 54 54 52 49 45 42 39 38 37 34 33 33 33 35 38 39 39 39 39 39 39 38 37 36 36 35 34 32 31 30 29 28 27 27 26 24 22 21 21 20 20 19 18 17 17
55 54 54 55 56 56 56 54 52 49 46 43 42 42 43 41 39 38 36 34 35 38 40 40 39 39 39 39 38 38 37 37 36 36 35 34 33 32 31 30 30 30 28 26 25 24 23 23 21 20 19 18
56 57 58 58 58 57 55 53 50 48 47 47 48 47 45 42 38 36 33 31 32 35 38 39 38 38 37 37 36 36 35 35 35 35 35 35 34 33 32 32 32 32 31 29 28 27 26 26 25 24 23 21
60 61 61 61 59 57 55 54 53 53 52 51 49 46 42 38 34 31 29 29 32 36 38 37 37 36 35 35 34 33 33 32 32 32 33 33 33 33 33 32 32 32 32 31 31 29 28 28 28 27 25 25
63 63 63 62 62 61 60 58 56 54 52 49 45 41 37 34 31 29 28 27 30 33 34 34 34 33 32 32 32 31 31 30 29 28 28 29 30 31 31 31 32 32 32 32 32 31 30 29 29 28 28 28
65 65 65 65 65 63 60 56 52 48 45 43 40 36 32 30 28 27 26 24 24 25 26 28 29 29 29 29 29 28 28 27 26 25 24 24 25 27 28 28 29 30 32 33 33 32 32 31 30 29 29 29
68 68 68 66 62 58 53 48 45 43 41 37 33 29 28 27 26 25 24 24 23 21 20 20 20 21 23 24 25 26 26 26 25 24 23 22 22 23 25 25 25 26 29 31 32 32 32 32 32 31 30 29

ECMWFFLT2_prec_cthk_075.txt.gz
RH
12 12 12 12 12 12 13 14 14 15 15 15 16 16 16 16 15 15 14 14 14 14 15 15 15 15 15 15 15 16 15 15 15 15 16 17 17 17 17 16 15 14 12 12 11 10 10 10 10 10 10 9
13 13 13 13 13 13 14 15 15 16 16 16 17 17 17 16 15 14 15 15 15 16 16 16 16 16 16 16 16 16 16 15 15 15 16 16 16 17 17 16 15 14 14 14 12 12 11 11 11 10 10 10
14 14 13 13 14 14 15 16 17 17 17 18 18 18 17 16 15 16 16 16 17 17 17 17 17 17 17 17 17 17 17 16 16 15 15 16 16 16 17 17 17 17 16 16 15 15 14 14 13 12 11 11
15 15 14 14 14 15 17 18 18 19 19 19 18 17 17 17 17 18 18 18 19 19 18 18 18 18 18 18 18 17 17 17 17 17 16 16 16 16 16 16 17 18 18 18 17 17 16 16 16 15 14 13
16 15 15 15 15 17 19 19 20 20 20 19 19 18 19 19 20 20 21 21 21 21 20 20 19 19 19 18 18 18 17 18 17 17 17 17 16 16 16 16 16 17 18 19 19 19 18 18 18 17 17 16
16 16 16 16 17 18 20 21 21 21 21 20 19 20 21 22 23 23 23 23 22 22 21 21 20 20 20 19 18 18 17 17 17 17 17 17 17 17 17 17 17 17 17 18 19 20 20 19 19 18 18 18
17 17 17 17 18 20 22 23 23 22 21 20 21 22 23 24 24 25 24 24 23 22 22 21 21 20 20 19 19 18 18 18 18 18 18 18 18 18 18 17 17 17 17 18 19 20 20 21 20 19 19 19
18 18 18 19 19 22 24 24 24 23 21 22 23 24 25 25 26 26 25 24 23 22 21 21 20 20 19 19 20 20 20 20 20 20 20 20 19 19 19 19 18 18 18 18 19 20 21 21 21 20 19 19
19 19 19 19 20 23 26 26 24 22 22 23 25 26 26 26 26 26 25 24 23 22 21 20 20 19 20 20 21 22 22 23 23 23 23 22 22 22 21 21 20 19 19 18 18 19 20 21 22 21 20 19
19 19 20 20 22 25 26 25 24 23 24 25 26 26 26 26 26 25 25 23 22 21 20 20 20 20 21 23 24 24 25 25 26 26 25 25 25 24 24 22 22 21 20 19 18 18 18 19 21 22 21 20
20 20 20 21 24 26 26 26 25 25 25 26 27 27 27 26 26 26 25 24 23 22 21 21 21 22 24 25 26 26 27 28 28 28 27 28 27 27 26 25 23 23 21 20 19 17 17 18 19 20 21 21
20 20 21 23 25 27 28 27 26 27 27 28 29 28 28 27 27 27 26 25 24 23 23 23 23 24 26 26 27 28 28 29 29 30 30 30 30 29 28 27 26 25 23 21 19 17 17 17 18 19 20 20
22 22 23 24 26 28 29 28 27 28 29 30 30 29 29 29 29 29 28 28 27 26 25 25 25 25 26 27 27 28 28 29 29 29 30 30 30 29 28 27 26 26 25 23 21 19 18 18 18 19 19 21
24 24 25 26 27 28 28 28 28 29 30 31 31 31 31 31 31 31 31 31 30 28 27 26 26 26 27 27 27 26 26 27 27 28 29 29 28 27 26 25 24 24 24 22 22 21 20 20 19 20 20 21
24 24 25 27 27 28 28 28 30 31 32 32 32 32 32 33 33 33 33 32 30 28 27 27 28 29 29 29 28 26 26 26 27 27 28 28 29 27 25 23 22 21 20 19 19 19 20 22 22 23 22 22
25 26 27 27 28 28 29 30 32 34 34 33 32 32 32 33 35 35 34 32 32 31 30 31 32 32 32 31 30 29 28 27 27 27 27 27 27 27 24 22 20 19 19 17 16 17 18 20 22 24 25 24
29 29 29 29 30 30 32 33 34 36 35 35 33 34 35 36 37 37 36 35 35 35 35 36 36 36 36 35 34 32 30 28 26 25 25 25 24 24 23 20 19 18 17 17 16 16 17 17 19 21 22 24
32 32 32 32 33 33 35 36 37 37 36 35 35 37 38 40 40 40 40 40 41 41 42 42 42 41 40 39 37 35 31 27 25 23 23 23 23 23 22 20 19 18 17 17 16 16 16 17 17 17 18 19
36 36 36 36 37 38 39 40 40 39 38 38 39 40 41 41 41 41 42 43 44 45 45 44 43 42 41 39 37 34 31 29 26 24 23 23 23 23 23 22 21 20 19 18 18 17 16 16 16 16 15 16
39 39 40 41 42 43 44 44 43 42 42 43 45 46 46 46 45 45 44 44 44 43 42 41 40 38 37 37 36 35 33 32 30 28 27 25 25 25 24 24 23 22 22 21 20 19 18 17 16 15 14 14
42 43 45 46 47 48 47 47 46 47 48 49 51 51 52 52 51 50 48 47 45 42 39 36 35 35 35 36 35 35 35 34 33 31 30 28 27 27 26 25 25 24 23 23 22 21 19 18 17 16 15 14
46 48 49 50 51 51 50 51 52 53 54 55 55 56 56 55 54 52 50 48 45 41 37 34 33 34 37 37 35 34 34 33 33 32 31 30 30 29 29 27 26 26 25 24 23 22 20 19 19 17 16 16
51 51 52 53 53 54 54 56 57 58 59 60 60 59 58 57 55 53 50 47 44 40 37 35 33 33 36 37 36 34 34 34 34 34 34 33 33 32 32 31 30 29 27 26 25 23 22 21 20 19 18 17
54 54 55 56 57 59 60 61 62 63 63 63 63 62 60 58 56 54 51 47 43 39 37 35 33 32 35 39 40 40 39 38 38 37 37 36 36 35 35 34 34 32 31 29 28 27 25 24 22 21 19 18
57 58 59 61 63 65 66 67 67 68 68 67 65 63 61 59 57 55 51 46 42 38 36 35 36 37 39 43 44 43 41 39 38 37 36 36 35 35 34 34 34 34 32 31 30 30 29 29 27 25 22 21
60 62 64 67 68 69 70 70 70 70 71 69 67 65 63 61 58 53 48 44 40 38 37 38 40 41 42 43 42 40 38 37 36 34 33 33 32 32 31 31 31 31 31 30 29 29 30 29 29 28 26 24
66 68 70 72 72 72 72 73 72 72 71 70 69 66 63 59 55 50 45 43 41 40 40 40 40 40 39 39 38 36 35 33 32 31 30 30 29 29 29 29 28 28 28 28 27 27 27 27 28 28 27 26
72 74 75 75 75 74 74 73 72 71 70 68 65 60 56 52 49 46 45 44 43 41 40 38 36 34 33 32 32 32 31 30 30 29 29 28 28 28 27 27 26 26 27 27 26 26 25 25 26 26 25 26
77 78 79 78 78 77 75 73 71 69 67 63 59 55 52 49 48 47 45 44 41 39 36 33 30 28 26 25 25 26 27 28 29 29 29 29 28 27 27 26 25 24 24 24 25 25 24 24 25 25 24 25
81 81 81 81 80 78 76 74 71 68 64 59 55 53 51 49 48 47 45 42 39 35 31 27 24 22 20 19 19 20 22 24 26 28 29 28 28 27 26 26 25 23 22 22 23 23 23 23 23 23 24 24
85 84 83 81 78 75 72 68 65 61 57 53 51 49 48 47 46 44 41 38 33 29 26 23 20 18 17 17 17 17 17 19 21 23 23 24 25 25 25 26 26 24 23 22 22 22 23 22 22 23 23 24

ECMWFFLT2_prec_cthk_078.txt.gz
RH
11 12 12 12 12 13 13 14 14 14 14 14 15 16 16 16 16 16 15 15 14 13 13 13 13 13 13 13 13 13 12 12 12 12 13 12 12 13 13 13 13 13 13 13 13 13 13 13 12 12 11 10
13 13 13 13 13 14 14 14 14 14 15 15 16 17 17 17 17 16 16 15 14 14 14 14 13 13 13 14 13 13 13 13 13 13 13 13 13 13 13 13 13 13 13 14 13 14 14 14 14 13 13 12
14 14 14 14 15 15 15 15 15 15 16 16 17 18 18 18 18 17 17 16 15 15 15 15 15 15 15 15 15 15 15 15 14 14 14 14 14 14 14 14 14 14 14 13 14 14 14 15 15 15 15 14
15 15 15 15 15 16 16 15 16 16 16 17 18 19 19 19 19 18 17 17 17 17 17 17 17 17 17 17 17 17 17 16 16 16 15 15 15 15 15 15 15 15 14 14 14 14 14 15 15 16 17 16
15 16 16 16 16 16 16 16 16 16 17 18 19 20 20 20 19 19 18 19 19 19 19 19 19 19 19 18 18 17 17 17 17 17 16 16 16 15 15 15 15 15 15 15 15 14 14 15 15 15 16 17
16 16 16 17 17 17 16 16 16 17 18 20 21 21 21 20 20 20 20 20 20 20 20 20 20 19 19 19 18 18 18 18 17 17 17 17 17 17 16 16 15 15 15 15 15 15 15 15 15 16 16 16
16 16 17 17 17 18 17 17 17 18 20 22 22 22 21 21 20 20 21 21 21 21 21 21 20 19 19 19 19 19 18 18 18 18 18 18 18 18 18 18 18 17 17 16 16 16 16 16 15 15 16 16
16 17 18 18 18 19 18 17 18 20 22 23 23 22 22 21 21 21 22 22 22 22 22 22 21 20 20 20 20 19 19 19 18 18 18 19 19 20 20 21 21 21 20 19 18 18 17 17 16 16 16 16
17 18 18 19 19 19 18 18 19 21 23 24 24 23 23 22 22 23 24 24 24 24 24 23 23 22 22 22 21 20 20 19 18 18 19 20 20 21 21 22 22 22 23 22 22 21 20 18 18 17 16 16
18 19 19 19 19 19 19 19 20 21 23 25 25 25 24 23 24 25 25 26 26 26 26 25 25 24 23 23 22 20 19 19 18 18 19 20 20 21 21 21 21 21 22 22 23 23 23 22 20 18 17 17
20 20 20 20 20 20 20 20 21 22 24 26 27 26 26 26 26 27 27 28 28 28 27 26 26 25 23 22 21 20 19 18 18 19 19 20 20 20 20 21 20 21 20 21 21 22 23 23 22 21 20 18
21 21 21 21 21 21 21 22 23 24 25 27 28 27 27 27 28 28 29 29 30 29 28 26 25 24 23 22 21 20 19 19 19 20 20 21 21 21 21 21 21 21 21 21 21 21 21 21 22 21 21 21
23 23 23 23 23 23 22 23 23 24 26 27 28 28 28 28 29 30 30 30 30 29 27 26 25 24 24 23 22 21 21 21 21 22 22 23 23 23 23 22 22 22 22 22 22 22 22 21 21 20 20 20
25 25 25 24 23 23 23 23 24 25 26 28 28 28 29 29 30 31 31 31 30 29 27 26 26 26 25 25 24 24 23 24 25 25 25 24 24 24 24 23 22 22 22 22 22 22 22 22 21 20 18 18
26 26 25 24 23 22 23 24 25 27 28 29 29 29 29 30 31 31 32 32 31 30 28 28 28 28 28 28 28 27 28 29 29 29 28 27 26 26 25 25 24 22 22 22 22 22 21 21 21 20 18 17
25 25 24 24 24 24 25 26 27 29 29 30 30 29 30 31 32 32 33 33 32 30 29 29 30 31 31 32 33 33 34 35 35 34 33 32 31 29 28 27 25 24 23 22 21 20 20 20 20 19 17 15
26 26 26 27 27 28 29 29 30 31 31 31 31 31 32 33 33 34 35 34 33 31 30 31 32 33 33 35 37 38 39 39 39 38 38 36 34 33 31 29 27 24 22 21 20 20 19 19 19 19 17 15
29 30 31 31 32 33 33 34 34 34 35 35 35 36 37 38 39 39 39 38 37 35 35 36 37 38 38 38 39 39 40 40 40 39 38 37 36 34 33 30 28 25 23 22 22 21 20 19 19 19 18 17
33 34 35 36 37 38 38 38 39 39 39 40 40 41 42 43 44 44 44 43 41 40 41 42 43 43 42 41 41 42 42 41 40 39 37 37 36 35 34 32 29 28 26 25 24 24 23 22 21 20 20 20
37 38 40 41 42 42 43 43 44 44 44 44 45 46 47 48 48 48 47 45 44 45 46 47 47 47 46 45 45 45 45 44 42 40 37 36 35 35 34 33 32 30 29 28 27 27 26 25 24 22 22 22
41 43 44 45 46 47 47 47 48 48 49 49 50 51 51 52 52 51 49 48 48 50 50 50 51 50 50 50 49 48 47 45 44 41 39 37 36 35 35 34 32 32 31 30 28 28 27 27 26 25 24 23
46 47 48 49 50 51 51 52 52 53 54 54 55 55 56 55 55 53 51 51 51 52 53 53 54 54 54 53 52 50 48 46 43 41 40 39 38 37 37 35 33 31 30 29 27 26 26 26 26 26 25 25
51 51 53 53 54 55 56 57 58 58 59 59 59 59 58 57 55 53 52 52 53 54 55 56 56 56 56 55 53 51 48 45 43 41 41 41 40 39 37 35 33 31 30 30 29 28 27 27 26 26 26 26
55 55 57 58 59 60 61 62 63 63 63 63 62 61 60 58 56 55 55 55 56 57 58 58 58 58 57 55 53 50 47 44 42 42 42 41 40 38 36 35 34 35 34 34 34 33 31 30 29 28 26 26
60 61 62 64 66 67 67 68 68 68 67 67 66 64 62 60 58 58 58 59 59 60 60 60 60 59 57 54 51 48 45 43 42 42 42 40 39 38 38 39 39 39 38 36 35 33 31 31 30 28 27 26
66 68 69 71 72 73 74 73 73 73 72 71 69 67 65 63 62 62 62 62 62 62 62 61 60 57 54 50 47 44 41 40 40 41 42 41 41 41 42 42 41 39 38 36 34 32 31 29 28 27 27 27
74 76 77 78 79 79 80 79 78 76 75 73 71 69 67 65 65 64 64 64 63 63 63 60 57 53 48 45 42 40 38 37 37 38 40 42 44 44 44 43 41 39 36 34 33 31 29 27 25 25 25 26
82 83 84 85 85 84 83 81 79 77 75 74 72 70 69 68 66 66 65 65 65 63 60 57 53 50 46 44 42 39 37 36 35 35 36 38 41 43 44 42 40 37 35 33 32 30 28 26 25 24 23 23
89 90 89 89 87 85 83 81 79 77 75 74 72 71 70 69 68 67 66 64 62 59 56 54 51 49 46 43 41 38 36 35 34 34 34 34 35 37 39 39 38 36 34 33 31 30 29 27 25 24 23 23
93 91 89 87 85 83 81 78 76 74 73 71 70 69 67 66 65 64 63 60 58 56 53 52 50 47 45 42 40 38 36 35 34 33 32 30 29 28 30 32 34 33 33 33 32 31 30 28 27 25 25 24
90 87 84 82 79 77 74 72 70 68 67 66 65 64 62 61 60 59 58 56 54 52 51 49 48 46 44 42 40 39 37 35 34 31 29 26 24 22 22 26 31 33 33 33 33 32 31 30 28 28 27 25